Calendário de Provas - Graduação e Gestão - 2016 - 2º Semestre / 4º Bimestre - (Última atualização: 29.11.2016).
Obs.: As Disciplinas Comuns destinadas aos cursos de Graduação serão compostas apenas por questões de múltipla escolha neste semestre.

DATA CURSO CURRICULO BIMESTRE SEMESTRE COD. DISCIPLINA TIPO
11/11/2016 LETRAS ESPANHOL SEI-20131-2-3-4 4 8 6273-60 Língua Espanhola: Aspectos discursivos AP
11/11/2016 LETRAS ESPANHOL SEI-20131-2-3-4 4 8 6275-40 Literaturas da Língua Espanhola: Poesia AP
11/11/2016 LETRAS ESPANHOL SEI-20141-2-3-4 4 6 5464-80 Literatura Brasileira: Prosa AP
11/11/2016 LETRAS ESPANHOL SEI-20141-2-3-4 4 6 5493-40 Tóp de Atuação Prof AP
11/11/2016 LETRAS INGLÊS SEI/ EAD-20131-2-3-4 4 8 6267-60 Língua Inglesa: Aspectos Discursivos AP
11/11/2016 LETRAS INGLÊS SEI/ EAD-20131-2-3-4 4 8 6960-40 Literaturas da Língua Inglesa: Poesia AP
11/11/2016 LETRAS INGLÊS SEI/ EAD-20141-2-3-4 4 6 5464-80 Literatura Brasileira: Prosa AP
11/11/2016 LETRAS INGLÊS SEI/ EAD-20141-2-3-4 4 6 5493-40 Tóp de Atuação Prof AP
11/11/2016 LETRAS PORTUGUÊS SEI/ EAD-20141-2-3-4 4 6 5464-80 Literatura Brasileira: Prosa AP
11/11/2016 LETRAS PORTUGUÊS SEI/ EAD-20141-2-3-4 4 6 5493-40 Tóp de Atuação Prof AP
14/11/2016 GESTÃO DE TI EAD-20161/ SEI-20161-2-3-4 4 2 3075-50 Metodologia Científica AP
14/11/2016 GESTÃO DE TI EAD-20161/ SEI-20161-2-3-4 4 2 3072-60 Modelagem de Processos AP
14/11/2016 GESTÃO DE TI EAD-20161/ SEI-20161-2-3-4 4 2 3070-60 Redes de Computadores e Telecomunicaçao AP
14/11/2016 GESTÃO DE TI SEI/ EAD-20151-2-3-4 4 4 3087-50 Empreendedorismo AP
14/11/2016 GESTÃO DE TI SEI/ EAD-20151-2-3-4 4 4 3086-60 Gerenciamento de Projetos de TI AP
14/11/2016 GESTÃO DE TI SEI/ EAD-20151-2-3-4 4 4 3084-60 Qualidade de Software AP
14/11/2016 ANÁLISE E DESENVOLVIMENTO DE SISTEMAS SEI-20151-2-3-4 4 4 6863-60 Desenvolvimento de Software para Internet AP
14/11/2016 ANÁLISE E DESENVOLVIMENTO DE SISTEMAS SEI-20151-2-3-4 4 4 6864-60 Gerenciamento de Projetos de Software AP
14/11/2016 ANÁLISE E DESENVOLVIMENTO DE SISTEMAS SEI-20151-2-3-4 4 4 6861-60 Tóp Especiais de Progr Orientada a Obj AP
14/11/2016 ANÁLISE E DESENVOLVIMENTO DE SISTEMAS SEI-20161-2-3-4 4 2 6653-60 Engenharia de Software I AP
14/11/2016 ANÁLISE E DESENVOLVIMENTO DE SISTEMAS SEI-20161-2-3-4 4 2 6654-120 Linguagem e Técnicas de Programação AP
18/11/2016 LETRAS ESPANHOL SEI-20131-2-3-4 4 8 6273-60 Língua Espanhola: Aspectos discursivos SUB
18/11/2016 LETRAS ESPANHOL SEI-20131-2-3-4 4 8 6275-40 Literaturas da Língua Espanhola: Poesia SUB
18/11/2016 LETRAS ESPANHOL SEI-20141-2-3-4 4 6 5464-80 Literatura Brasileira: Prosa SUB
18/11/2016 LETRAS ESPANHOL SEI-20141-2-3-4 4 6 5493-40 Tóp de Atuação Prof SUB
18/11/2016 LETRAS INGLÊS SEI/ EAD-20131-2-3-4 4 8 6267-60 Língua Inglesa: Aspectos Discursivos SUB
18/11/2016 LETRAS INGLÊS SEI/ EAD-20131-2-3-4 4 8 6960-40 Literaturas da Língua Inglesa: Poesia SUB
18/11/2016 LETRAS INGLÊS SEI/ EAD-20141-2-3-4 4 6 5464-80 Literatura Brasileira: Prosa SUB
18/11/2016 LETRAS INGLÊS SEI/ EAD-20141-2-3-4 4 6 5493-40 Tóp de Atuação Prof SUB
18/11/2016 LETRAS PORTUGUÊS SEI/ EAD-20141-2-3-4 4 6 5464-80 Literatura Brasileira: Prosa SUB
18/11/2016 LETRAS PORTUGUÊS SEI/ EAD-20141-2-3-4 4 6 5493-40 Tóp de Atuação Prof SUB
18/11/2016 MATEMÁTICA SEI-20151-2-3-4 4 4 6150-80 Cálculo Dif e Integral de Várias Variáveis AP
18/11/2016 MATEMÁTICA SEI-20151-2-3-4 4 4 6948-20 Didática Específica - Matemática AP
18/11/2016 MATEMÁTICA SEI-20151-2-3-4 4 4 5461-20 Língua Brasileira de Sinais - Libras AP
18/11/2016 MATEMÁTICA SEI-20151-2-3-4 4 4 6157-20 Noções de Cálculo Numérico AP
21/11/2016 GESTÃO DE TI EAD-20161/ SEI-20161-2-3-4 4 2 3075-50 Metodologia Científica SUB
21/11/2016 GESTÃO DE TI EAD-20161/ SEI-20161-2-3-4 4 2 3072-60 Modelagem de Processos SUB
21/11/2016 GESTÃO DE TI EAD-20161/ SEI-20161-2-3-4 4 2 3070-60 Redes de Computadores e Telecomunicaçao SUB
21/11/2016 GESTÃO DE TI SEI/ EAD-20151-2-3-4 4 4 3087-50 Empreendedorismo SUB
21/11/2016 GESTÃO DE TI SEI/ EAD-20151-2-3-4 4 4 3086-60 Gerenciamento de Projetos de TI SUB
21/11/2016 GESTÃO DE TI SEI/ EAD-20151-2-3-4 4 4 3084-60 Qualidade de Software SUB
21/11/2016 ANÁLISE E DESENVOLVIMENTO DE SISTEMAS SEI-20151-2-3-4 4 4 6863-60 Desenvolvimento de Software para Internet SUB
21/11/2016 ANÁLISE E DESENVOLVIMENTO DE SISTEMAS SEI-20151-2-3-4 4 4 6864-60 Gerenciamento de Projetos de Software SUB
21/11/2016 ANÁLISE E DESENVOLVIMENTO DE SISTEMAS SEI-20151-2-3-4 4 4 6861-60 Tóp Especiais de Progr Orientada a Obj SUB
21/11/2016 ANÁLISE E DESENVOLVIMENTO DE SISTEMAS SEI-20161-2-3-4 4 2 6653-60 Engenharia de Software I SUB
21/11/2016 ANÁLISE E DESENVOLVIMENTO DE SISTEMAS SEI-20161-2-3-4 4 2 6654-120 Linguagem e Técnicas de Programação SUB
21/11/2016 GESTÃO HOSPITALAR SEI-20161-2-3-4 4 2 6656-40 Comunicação e Expressão AP
21/11/2016 GESTÃO HOSPITALAR SEI-20161-2-3-4 4 2 2995-30 Dinâmica das Relações Interpessoais AP
21/11/2016 GESTÃO HOSPITALAR SEI-20161-2-3-4 4 2 6658-60 Estrutura e Arquitetura Hospitalar AP
21/11/2016 HISTÓRIA SEI-20141-2-3-4 4 6 6969-40 Direitos Humanos AP
21/11/2016 HISTÓRIA SEI-20141-2-3-4 4 6 6817-40 História da Globalização AP
21/11/2016 HISTÓRIA SEI-20141-2-3-4 4 6 6816-60 Historiografia do Brasil AP
21/11/2016 HISTÓRIA SEI-20141-2-3-4 4 6 6943-40 Tóp de Atuação Prof - História AP
21/11/2016 HISTÓRIA SEI-20151-2-3-4 4 4 6944-20 Didática Específica - História AP
21/11/2016 HISTÓRIA SEI-20151-2-3-4 4 4 6810-80 História da América Contemporânea AP
21/11/2016 HISTÓRIA SEI-20151-2-3-4 4 4 6808-40 História Interdisciplinar AP
21/11/2016 HISTÓRIA SEI-20161-2-3-4 4 2 6639-60 História Antiga e Medieval AP
21/11/2016 HISTÓRIA SEI-20161-2-3-4 4 2 6638-60 História do Brasil Colônia AP
22/11/2016 ADMINISTRAÇÃO SEI/ EAD-20131-2-3-4 4 8 5610-40 Liderança: Atributos e Atribuições AP
22/11/2016 ADMINISTRAÇÃO SEI/ EAD-20131-2-3-4 4 8 5398-60 Pesquisa Operacional AP
22/11/2016 ADMINISTRAÇÃO SEI/ EAD-20131-2-3-4 4 8 6938-40 Tóp de Atuação Prof - Administração AP
22/11/2016 ADMINISTRAÇÃO SEI/ EAD-20141-2-3-4 4 6 5388-40 Administração Interdisciplinar AP
22/11/2016 ADMINISTRAÇÃO SEI/ EAD-20141-2-3-4 4 6 6233-40 Análise de Custos AP
22/11/2016 ADMINISTRAÇÃO SEI/ EAD-20141-2-3-4 4 6 5389-60 Empreendedorismo e Plano de Negócios AP
22/11/2016 ADMINISTRAÇÃO SEI/ EAD-20151-2-3-4 4 4 5401-60 Direito nas Organizações AP
22/11/2016 ADMINISTRAÇÃO SEI/ EAD-20151-2-3-4 4 4 5379-80 Gestao de Pessoas AP
22/11/2016 ADMINISTRAÇÃO SEI/ EAD-20161-2-3-4 4 2 5370-80 Contabilidade AP
22/11/2016 ADMINISTRAÇÃO SEI/ EAD-20161-2-3-4 4 2 5372-60 Tecnologias da Informação AP
22/11/2016 CIÊNCIAS CONTÁBEIS SEI/ EAD-20161-2-3-4 4 2 5370-80 Contabilidade AP
22/11/2016 CIÊNCIAS CONTÁBEIS SEI/ EAD-20161-2-3-4 4 2 5372-60 Tecnologias da Informação AP
22/11/2016 CIÊNCIAS ECONÔMICAS SEI-20141-2-3-4 4 6 6834-40 Ciências Economicas Interdisciplinar AP
22/11/2016 CIÊNCIAS ECONÔMICAS SEI-20141-2-3-4 4 6 6832-60 Economia Internacional AP
22/11/2016 CIÊNCIAS ECONÔMICAS SEI-20141-2-3-4 4 6 6830-80 Estatística Econômica/ Introdução à Econometria ( Permitido o uso de Calculadora Financeira HP12C e Fórmulas no AVA ) AP
22/11/2016 CIÊNCIAS ECONÔMICAS SEI-20151-2-3-4 4 4 6825-80 História do Pensamento Econômico AP
22/11/2016 CIÊNCIAS ECONÔMICAS SEI-20151-2-3-4 4 4 6824-80 Microeconomia em Concorrência Perfeita AP
22/11/2016 CIÊNCIAS ECONÔMICAS SEI-20161-2-3-4 4 2 6646-40 Economia e Ética AP
22/11/2016 CIÊNCIAS ECONÔMICAS SEI-20161-2-3-4 4 2 6647-40 Elementos de Raciocínio Lógico AP
22/11/2016 CIÊNCIAS ECONÔMICAS SEI-20161-2-3-4 4 2 6692-60 Fundamentos de Administração AP
22/11/2016 FÍSICA SEI-20163-4 4 2 6108-30 Educação Ambiental AP
22/11/2016 FÍSICA SEI-20163-4 4 2 6963-90 Mecânica Clássica Permitido somente o uso de Calculadora Científica HP20C. AP
22/11/2016 FÍSICA SEI-20163-4 4 2 6642-30 Química Básica ( Permitido somente o uso de Calculadora Simples ) AP
22/11/2016 GESTÃO DE RH EAD-20161/ SEI-20161-2-3-4 4 2 3043-60 Desenvolvimento de Recursos Humanos AP
22/11/2016 GESTÃO DE RH EAD-20161/ SEI-20161-2-3-4 4 2 2995-30 Dinâmica das Relações Interpessoais AP
22/11/2016 GESTÃO DE RH EAD-20161/ SEI-20161-2-3-4 4 2 3042-60 Suprimento de Mão de Obra AP
22/11/2016 GESTÃO DE RH SEI/ EAD-20151-2-3-4 4 4 3027-60 Planejamento Estratégico AP
22/11/2016 GESTÃO DE RH SEI/ EAD-20151-2-3-4 4 4 4651-30 Sistemas para Operações de Recursos Humanos AP
22/11/2016 GESTÃO DE RH SEI/ EAD-20151-2-3-4 4 4 3048-60 Técnicas de Negociação AP
22/11/2016 GESTÃO EM SEG. NO TRABALHO SEI-20141-2-3-4 4 6 6915-60 Comunicação e Treinamento AP
22/11/2016 GESTÃO EM SEG. NO TRABALHO SEI-20141-2-3-4 4 6 6918-60 Normas Técnicas e Internacionais de SST AP
22/11/2016 GESTÃO EM SEG. NO TRABALHO SEI-20141-2-3-4 4 6 6914-30 Organização do Trabalho AP
22/11/2016 GESTÃO EM SEG. NO TRABALHO SEI-20151-2-3-4 4 4 6905-60 Espaços Confinados AP
22/11/2016 GESTÃO EM SEG. NO TRABALHO SEI-20151-2-3-4 4 4 6904-60 Legislação Previdenciária AP
22/11/2016 GESTÃO EM SEG. NO TRABALHO SEI-20161-2-3-4 4 2 6660-30 Biologia Aplicada AP
22/11/2016 GESTÃO EM SEG. NO TRABALHO SEI-20161-2-3-4 4 2 6661-60 Ergonomia AP
22/11/2016 GESTÃO EM SEG. NO TRABALHO SEI-20161-2-3-4 4 2 6663-60 Planejamento e Programas de Manutenção Industrial AP
22/11/2016 GESTÃO HOSPITALAR SEI-20141-2-3-4 4 6 6884-30 Gestão Hospitalar Integrada AP
22/11/2016 GESTÃO HOSPITALAR SEI-20141-2-3-4 4 6 6886-60 Serviços Laboratoriais e Exames Clínicos AP
22/11/2016 GESTÃO HOSPITALAR SEI-20141-2-3-4 4 6 6888-60 Sistemas de Informação na Área de Saúde AP
22/11/2016 GESTÃO HOSPITALAR SEI-20151-2-3-4 4 4 6871-60 Higiêne, Seg e Qualid de Vida no Trabalho AP
22/11/2016 GESTÃO HOSPITALAR SEI-20151-2-3-4 4 4 6874-60 Planejamento Estratégico em Saúde AP
22/11/2016 GESTÃO HOSPITALAR SEI-20151-2-3-4 4 4 6870-40 Saúde Pública AP
23/11/2016 CIÊNCIAS CONTÁBEIS SEI/ EAD-20131-2-3-4 4 8 6253-60 Análise das Demonstrações Contábeis ( Permitido o uso de Caculadora Simples e Fórmulas no AVA ) AP
23/11/2016 CIÊNCIAS CONTÁBEIS SEI/ EAD-20131-2-3-4 4 8 5633-40 Avaliação de Empresas ( Permitido o uso de Caculadora Simples e Fórmulas no AVA ) AP
23/11/2016 CIÊNCIAS CONTÁBEIS SEI/ EAD-20131-2-3-4 4 8 6941-40 Tóp de Atuação Prof - Ciências Contábeis ( Permitido o uso de Caculadora Simples e Fórmulas no AVA ) AP
23/11/2016 CIÊNCIAS CONTÁBEIS SEI/ EAD-20141-2-3-4 4 6 5424-40 Ciências Contábeis Interdisciplinar AP
23/11/2016 CIÊNCIAS CONTÁBEIS SEI/ EAD-20141-2-3-4 4 6 6539-60 Contabilidade Financeira AP
23/11/2016 CIÊNCIAS CONTÁBEIS SEI/ EAD-20141-2-3-4 4 6 5622-40 Direito Social e Trabalhista AP
23/11/2016 CIÊNCIAS CONTÁBEIS SEI/ EAD-20151-2-3-4 4 4 6242-40 Contabilidade de Custos AP
23/11/2016 CIÊNCIAS CONTÁBEIS SEI/ EAD-20151-2-3-4 4 4 5609-40 Matemática Financeira ( Permitido o uso de Caculadora Financeira HP12C e Fórmulas no AVA ) AP
23/11/2016 CIÊNCIAS CONTÁBEIS SEI/ EAD-20151-2-3-4 4 4 6243-60 Planejamento Contábil Tributário AP
23/11/2016 GESTÃO AMBIENTAL SEI-20151-2-3-4 4 4 6849-30 Aval de Impactos Amb e Ger de Riscos AP
23/11/2016 GESTÃO AMBIENTAL SEI-20151-2-3-4 4 4 6848-30 Economia Ambiental e Financiamento de Projetos AP
23/11/2016 GESTÃO AMBIENTAL SEI-20151-2-3-4 4 4 3027-60 Planejamento Estratégico AP
23/11/2016 GESTÃO AMBIENTAL SEI-20151-2-3-4 4 4 6851-30 Recuperação de Áreas Degradadas AP
23/11/2016 GESTÃO AMBIENTAL SEI-20161-2-3-4 4 2 2995-30 Dinâmica das Relações Interpessoais AP
23/11/2016 GESTÃO AMBIENTAL SEI-20161-2-3-4 4 2 6650-60 Fund de Ecologia: Ecossist e Biodiversidade AP
23/11/2016 GESTÃO AMBIENTAL SEI-20161-2-3-4 4 2 6651-60 Química Ambiental AP
23/11/2016 GESTÃO EM AGRONEGÓCIO SEI-20141-2-3-4 4 6 6933-60 Agricultura Internacional e o Meio Ambiente AP
23/11/2016 GESTÃO EM AGRONEGÓCIO SEI-20141-2-3-4 4 6 6935-30 Mecanização Agrícola AP
23/11/2016 GESTÃO EM AGRONEGÓCIO SEI-20141-2-3-4 4 6 6932-60 Mercado Futuro - II AP
23/11/2016 GESTÃO EM AGRONEGÓCIO SEI-20151-2-3-4 4 4 6924-30 Agricultura Sustentável AP
23/11/2016 GESTÃO EM AGRONEGÓCIO SEI-20151-2-3-4 4 4 6925-60 Cadeias Produtivas - II AP
23/11/2016 GESTÃO EM AGRONEGÓCIO SEI-20151-2-3-4 4 4 3027-60 Planejamento Estratégico AP
23/11/2016 GESTÃO EM AGRONEGÓCIO SEI-20161-2-3-4 4 2 2995-30 Dinâmica das Relações Interpessoais AP
23/11/2016 GESTÃO EM AGRONEGÓCIO SEI-20161-2-3-4 4 2 6645-60 Introdução ao Agronegócio AP
23/11/2016 GESTÃO EM AGRONEGÓCIO SEI-20161-2-3-4 4 2 4653-60 Mercado de Capitais AP
23/11/2016 GESTÃO EM GASTRONOMIA SEI-20163-4 4 2 6967-30 Controle de Qualid e Conserv dos Alimentos AP
23/11/2016 GESTÃO EM GASTRONOMIA SEI-20163-4 4 2 6968-60 Cozinha Fria AP
23/11/2016 GESTÃO EM GASTRONOMIA SEI-20163-4 4 2 6966-60 Técnicas de Cozinha Profissional AP
23/11/2016 GESTÃO EM LOGÍSTICA EAD-20161/ SEI-20161-2-3-4 4 2 2995-30 Dinâmica das Relações Interpessoais AP
23/11/2016 GESTÃO EM LOGÍSTICA EAD-20161/ SEI-20161-2-3-4 4 2 4410-60 Planejamento e Controle de Estoques AP
23/11/2016 GESTÃO EM LOGÍSTICA EAD-20161/ SEI-20161-2-3-4 4 2 4412-60 Planejamento e Operação por Categoria de Produto AP
23/11/2016 GESTÃO EM LOGÍSTICA SEI/ EAD-20151-2-3-4 4 4 4418-30 Logística no Comércio Eletrônico AP
23/11/2016 GESTÃO EM LOGÍSTICA SEI/ EAD-20151-2-3-4 4 4 4415-60 Logística para Importaçao e Exportação AP
23/11/2016 GESTÃO EM LOGÍSTICA SEI/ EAD-20151-2-3-4 4 4 3027-60 Planejamento Estratégico AP
23/11/2016 GESTÃO EM MARKETING SEI/ EAD-20151-2-3-4 4 4 4658-60 Estratégia Competitiva AP
23/11/2016 GESTÃO EM MARKETING SEI/ EAD-20151-2-3-4 4 4 4659-30 Gerenciamento de Web Marketing AP
23/11/2016 GESTÃO EM MARKETING SEI/ EAD-20151-2-3-4 4 4 3027-60 Planejamento Estratégico AP
23/11/2016 GESTÃO EM PROC. GER. EAD-20161/ SEI-20161-2-3-4 4 2 4664-60 Desenvolvimento de Recursos Humanos AP
23/11/2016 GESTÃO EM PROC. GER. EAD-20161/ SEI-20161-2-3-4 4 2 2995-30 Dinâmica das Relações Interpessoais AP
23/11/2016 GESTÃO EM PROC. GER. EAD-20161/ SEI-20161-2-3-4 4 2 3031-60 Marketing AP
23/11/2016 GESTÃO EM PROC. GER. SEI/ EAD-20151-2-3-4 4 4 5600-60 Administração de Produção e Operações AP
23/11/2016 GESTÃO EM PROC. GER. SEI/ EAD-20151-2-3-4 4 4 5601-30 Criatividade e Inovação AP
23/11/2016 GESTÃO EM PROC. GER. SEI/ EAD-20151-2-3-4 4 4 3027-60 Planejamento Estratégico AP
23/11/2016 GESTÃO PÚBLICA SEI-20151-2-3-4 4 4 6895-30 Licitações e Contratos Públicos AP
23/11/2016 GESTÃO PÚBLICA SEI-20151-2-3-4 4 4 3027-60 Planejamento Estratégico AP
23/11/2016 GESTÃO PÚBLICA SEI-20151-2-3-4 4 4 6894-60 Planejamento Urbano e Ambiental AP
23/11/2016 GESTÃO PÚBLICA SEI-20161-2-3-4 4 2 2995-30 Dinâmica das Relações Interpessoais AP
23/11/2016 GESTÃO PÚBLICA SEI-20161-2-3-4 4 2 6646-60 Gestão Pública e Políticas Públicas no Brasil AP
23/11/2016 GESTÃO PÚBLICA SEI-20161-2-3-4 4 2 6647-60 Introdução à Teoria do Estado AP
24/11/2016 ARTES VISUAIS SEI-20141-2-3-4 4 6 6790-40 Artes Visuais Brasileiras AP
24/11/2016 ARTES VISUAIS SEI-20141-2-3-4 4 6 6791-40 Produção Artística Visual nas Novas Mídias AP
24/11/2016 ARTES VISUAIS SEI-20141-2-3-4 4 6 6952-40 Tóp de Atuação Prof - Artes Visuais AP
24/11/2016 ARTES VISUAIS SEI-20151-2-3-4 4 4 6782-80 Arte e Estética AP
24/11/2016 ARTES VISUAIS SEI-20151-2-3-4 4 4 6780-40 Artes Visuais Interdisciplinar AP
24/11/2016 ARTES VISUAIS SEI-20151-2-3-4 4 4 5466-20 Planejamento e Políticas Públicas de Educação AP
24/11/2016 ARTES VISUAIS SEI-20161-2-3-4 4 2 6682-60 Composição e Projeto Gráfico AP
24/11/2016 ARTES VISUAIS SEI-20161-2-3-4 4 2 6681-60 Fotografia - Princípios e Técnicas AP
24/11/2016 GEOGRAFIA SEI-20141-2-3-4 4 6 6969-40 Direitos Humanos AP
24/11/2016 GEOGRAFIA SEI-20141-2-3-4 4 6 6803-60 Geo dos Transp, Logística e Intermodalidade AP
24/11/2016 GEOGRAFIA SEI-20141-2-3-4 4 6 6805-40 Planejamento Urbano e o Espaço Rural AP
24/11/2016 GEOGRAFIA SEI-20141-2-3-4 4 6 6953-40 Tóp de Atuação Prof - Geografia AP
24/11/2016 GEOGRAFIA SEI-20151-2-3-4 4 4 6954-20 Didática Específica - Geografia AP
24/11/2016 GEOGRAFIA SEI-20151-2-3-4 4 4 6797-80 Estudos Regionais do Brasil (SE, S) AP
24/11/2016 GEOGRAFIA SEI-20151-2-3-4 4 4 5461-20 Língua Brasileira de Sinais - Libras AP
24/11/2016 GEOGRAFIA SEI-20151-2-3-4 4 4 5466-20 Planejamento e Políticas Públicas de Educação AP
24/11/2016 GEOGRAFIA SEI-20161-2-3-4 4 2 6634-40 Elem de Climat; Domínios e Paisagens Vegetais AP
24/11/2016 GEOGRAFIA SEI-20161-2-3-4 4 2 6633-60 Estudos Cartográficos - Sistemas SIG, GPS, Aerofotos AP
24/11/2016 GEOGRAFIA SEI-20161-2-3-4 4 2 5448-40 Psicologia do Desenvolvimento e da Aprendizagem AP
24/11/2016 GESTÃO EM MARKETING EAD-20161/ SEI-20161-2-3-4 4 2 3026-60 Composto de Comunicaçao AP
24/11/2016 GESTÃO EM MARKETING EAD-20161/ SEI-20161-2-3-4 4 2 2995-30 Dinâmica das Relações Interpessoais AP
24/11/2016 GESTÃO EM MARKETING EAD-20161/ SEI-20161-2-3-4 4 2 3023-60 Pesquisa de Mercado AP
24/11/2016 PEDAGOGIA SEI/ EAD-20141-2-3-4 4 6 6258-60 Avaliação Educacional AP
24/11/2016 PEDAGOGIA SEI/ EAD-20141-2-3-4 4 6 6524-40 Did e Metod do Ens Médio: Normal e Ed. Prof AP
24/11/2016 PEDAGOGIA SEI/ EAD-20141-2-3-4 4 6 6949-40 Tóp de Atuação Prof - Pedagogia AP
24/11/2016 PEDAGOGIA SEI/ EAD-20151-2-3-4 4 4 6569-60 Metod de Arte e Movimento: Corporeidade AP
24/11/2016 PEDAGOGIA SEI/ EAD-20151-2-3-4 4 4 5660-60 Metod e Prát do Ens da Matemática e Ciências AP
24/11/2016 PEDAGOGIA SEI/ EAD-20151-2-3-4 4 4 5662-60 Metod e Prát do Ens de Língua Portuguesa AP
24/11/2016 PEDAGOGIA SEI/ EAD-20161-2-3-4 4 2 6567-40 Fundamentos de Filosofia e Educação AP
24/11/2016 PEDAGOGIA SEI/ EAD-20161-2-3-4 4 2 6255-60 Psic do Desenv e Teorias da Aprendizagem AP
24/11/2016 PEDAGOGIA SEI/ EAD-20161-2-3-4 4 2 6566-60 Tecnol da Inform e Comunic em Educação AP
24/11/2016 QUÍMICA SEI-20163-4 4 2 6108-30 Educação Ambiental AP
24/11/2016 QUÍMICA SEI-20163-4 4 2 5495-90 Informática AP
24/11/2016 QUÍMICA SEI-20163-4 4 2 6642-60 Química Geral AP
24/11/2016 SERVIÇO SOCIAL EAD-20161/ SEI-20161-2-3-4 4 2 6123-40 Antropologia e Cultura Brasileira AP
24/11/2016 SERVIÇO SOCIAL EAD-20161/ SEI-20161-2-3-4 4 2 5565-60 Introduçao ao Pensamento Sociológico AP
24/11/2016 SERVIÇO SOCIAL EAD-20161/ SEI-20161-2-3-4 4 2 5561-40 Legislaçao Social e Previdenciária AP
24/11/2016 SERVIÇO SOCIAL SEI/ EAD-2013-3-4 4 8 5555-60 Direito Constitucional AP
24/11/2016 SERVIÇO SOCIAL SEI/ EAD-2013-3-4 4 8 6505-60 Perspectivas Profissionais em Serviço Social AP
24/11/2016 SERVIÇO SOCIAL SEI/ EAD-2013-3-4 4 8 5558-40 Princípios Básicos de Administração AP
24/11/2016 SERVIÇO SOCIAL SEI/ EAD-20141-2-3-4 4 6 6139-40 Serviço Social em Equipe Multidisciplinar AP
24/11/2016 SERVIÇO SOCIAL SEI/ EAD-20141-2-3-4 4 6 5587-40 Serviço Social Integrado AP
24/11/2016 SERVIÇO SOCIAL SEI/ EAD-20141-2-3-4 4 6 6518-60 Supervisão de Intervenção Profissional AP
24/11/2016 SERVIÇO SOCIAL SEI/ EAD-20151-2-3-4 4 4 6509-40 Ética Profissional AP
24/11/2016 SERVIÇO SOCIAL SEI/ EAD-20151-2-3-4 4 4 6508-40 Movimentos Sociais Contemporâneos AP
24/11/2016 SERVIÇO SOCIAL SEI/ EAD-20151-2-3-4 4 4 6131-60 Observação Orientada (Supervisão) AP
24/11/2016 SOCIOLOGIA SEI-20141-2-3-4 4 6 6753-40 Temas Emergentes de Sociologia AP
24/11/2016 SOCIOLOGIA SEI-20141-2-3-4 4 6 6751-40 Teoria Política Contemporânea AP
24/11/2016 SOCIOLOGIA SEI-20141-2-3-4 4 6 6956-40 Tóp de Atuação Prof - Sociologia AP
24/11/2016 SOCIOLOGIA SEI-20141-2-3-4 4 6 6969-40 Direitos Humanos AP
24/11/2016 SOCIOLOGIA SEI-20151-2-3-4 4 4 6740-60 Fund de Economia para as Ciências Sociais AP
24/11/2016 SOCIOLOGIA SEI-20151-2-3-4 4 4 5461-20 Língua Brasileira de Sinais - Libras AP
24/11/2016 SOCIOLOGIA SEI-20151-2-3-4 4 4 5466-20 Planejamento e Políticas Públicas de Educação AP
24/11/2016 SOCIOLOGIA SEI-20151-2-3-4 4 4 6739-40 Sociologia Interdisciplinar AP
24/11/2016 SOCIOLOGIA SEI-20161-2-3-4 4 2 6635-40 História da Antropologia AP
24/11/2016 SOCIOLOGIA SEI-20161-2-3-4 4 2 6636-60 Pensamento Político Moderno AP
24/11/2016 SOCIOLOGIA SEI-20161-2-3-4 4 2 5448-40 Psicologia do Desenvolvimento e da Aprendizagem AP
25/11/2016 GESTÃO FINANCEIRA SEI-20151-2-3-4 4 4 3011-60 Análise de Investimentos AP
25/11/2016 GESTÃO FINANCEIRA SEI-20151-2-3-4 4 4 3027-60 Planejamento Estratégico AP
25/11/2016 GESTÃO FINANCEIRA SEI-20151-2-3-4 4 4 4655-30 Tecnol da Inform Aplic à Area Financeira AP
25/11/2016 GESTÃO FINANCEIRA SEI-20161-2-3-4 4 2 4652-60 Análise das Demonstrações Financeiras AP
25/11/2016 GESTÃO FINANCEIRA SEI-20161-2-3-4 4 2 2995-30 Dinâmica das Relações Interpessoais AP
25/11/2016 GESTÃO FINANCEIRA SEI-20161-2-3-4 4 2 3004-60 Orçamento Empresarial AP
25/11/2016 LETRAS ESPANHOL SEI-20151-2-3-4 4 4 5461-20 Língua Brasileira de Sinais - Libras AP
25/11/2016 LETRAS ESPANHOL SEI-20151-2-3-4 4 4 6265-60 Morfossintaxe Aplicada da Língua Portuguesa AP
25/11/2016 LETRAS ESPANHOL SEI-20151-2-3-4 4 4 5466-20 Planejamento e Políticas Públicas de Educação AP
25/11/2016 LETRAS ESPANHOL SEI-20151-2-3-4 4 4 6266-40 Relações Ciência, Tecnologia e Sociedade AP
25/11/2016 LETRAS ESPANHOL SEI-20161-2-3-4 4 2 6263-60 Semântica e Pragmática AP
25/11/2016 LETRAS ESPANHOL SEI-20161-2-3-4 4 2 6262-60 Teoria Literária AP
25/11/2016 LETRAS INGLÊS EAD-20161/ SEI-20161-2-3-4 4 2 6263-60 Semântica e Pragmática AP
25/11/2016 LETRAS INGLÊS EAD-20161/ SEI-20161-2-3-4 4 2 6262-60 Teoria Literária AP
25/11/2016 LETRAS INGLÊS SEI/ EAD-20151-2-3-4 4 4 5461-20 Língua Brasileira de Sinais - Libras AP
25/11/2016 LETRAS INGLÊS SEI/ EAD-20151-2-3-4 4 4 6265-60 Morfossintaxe Aplicada da Língua Portuguesa AP
25/11/2016 LETRAS INGLÊS SEI/ EAD-20151-2-3-4 4 4 5466-20 Planejamento e Políticas Públicas de Educação AP
25/11/2016 LETRAS INGLÊS SEI/ EAD-20151-2-3-4 4 4 6266-40 Relações Ciência, Tecnologia e Sociedade AP
25/11/2016 LETRAS PORTUGUÊS EAD-20161/ SEI-20161-2-3-4 4 2 6263-60 Semântica e Pragmática AP
25/11/2016 LETRAS PORTUGUÊS EAD-20161/ SEI-20161-2-3-4 4 2 6262-60 Teoria Literária AP
25/11/2016 LETRAS PORTUGUÊS SEI/ EAD-20151-2-3-4 4 4 5461-20 Língua Brasileira de Sinais - Libras AP
25/11/2016 LETRAS PORTUGUÊS SEI/ EAD-20151-2-3-4 4 4 6265-60 Morfossintaxe Aplicada da Língua Portuguesa AP
25/11/2016 LETRAS PORTUGUÊS SEI/ EAD-20151-2-3-4 4 4 5466-20 Planejamento e Políticas Públicas de Educação AP
25/11/2016 LETRAS PORTUGUÊS SEI/ EAD-20151-2-3-4 4 4 6266-40 Relações Ciência, Tecnologia e Sociedade AP
25/11/2016 MATEMÁTICA SEI-20141-2-3-4 4 6 6156-40 Complementos de Análise Matemática AP
25/11/2016 MATEMÁTICA SEI-20141-2-3-4 4 6 5512-80 Complementos de Física AP
25/11/2016 MATEMÁTICA SEI-20141-2-3-4 4 6 6152-40 Probabilidade e Estatística AP
25/11/2016 MATEMÁTICA SEI-20151-2-3-4 4 4 6150-80 Cálculo Dif e Integral de Várias Variáveis SUB
25/11/2016 MATEMÁTICA SEI-20151-2-3-4 4 4 6948-20 Didática Específica - Matemática SUB
25/11/2016 MATEMÁTICA SEI-20151-2-3-4 4 4 5461-20 Língua Brasileira de Sinais - Libras SUB
25/11/2016 MATEMÁTICA SEI-20151-2-3-4 4 4 6157-20 Noções de Cálculo Numérico SUB
25/11/2016 MATEMÁTICA SEI-20161-2-3-4 4 2 5500-60 Geometria Plana AP
25/11/2016 MATEMÁTICA SEI-20161-2-3-4 4 2 5638-40 Lógica Matemática AP
25/11/2016 MATEMÁTICA SEI-20161-2-3-4 4 2 5448-40 Psicologia do Desenvolvimento e da Aprendizagem AP
25/11/2016 MATEMÁTICA SEI-2016-4 4 2 6147-60 Cálculo Diferencial de Uma Variável AP
28/11 A 03/12/2016 Turma de Dependência ( DP ) Graduação e Gestão Todos Todas AP
28/11/2016 CIÊNCIAS BIOLOGICAS EAD-20161/ SEI-20161-2-3-4 4 2 6643-60 Citologia AP
28/11/2016 CIÊNCIAS BIOLOGICAS EAD-20161/ SEI-20161-2-3-4 4 2 6644-60 Ecossistemas Terrestres AP
28/11/2016 CIÊNCIAS BIOLOGICAS EAD-20161/ SEI-20161-2-3-4 4 2 6641-40 Matemática e Bioestatística AP
28/11/2016 CIÊNCIAS BIOLOGICAS SEI/ EAD-20141-2-3-4 4 6 6772-40 Ciências Biológicas Interdisciplinar AP
28/11/2016 CIÊNCIAS BIOLOGICAS SEI/ EAD-20141-2-3-4 4 6 6969-40 Direitos Humanos AP
28/11/2016 CIÊNCIAS BIOLOGICAS SEI/ EAD-20141-2-3-4 4 6 6774-60 Evolução AP
28/11/2016 CIÊNCIAS BIOLOGICAS SEI/ EAD-20141-2-3-4 4 6 6773-60 Geologia e Paleontologia AP
28/11/2016 CIÊNCIAS BIOLOGICAS SEI/ EAD-20151-2-3-4 4 4 6762-40 Bioquímica Metabólica AP
28/11/2016 CIÊNCIAS BIOLOGICAS SEI/ EAD-20151-2-3-4 4 4 6761-60 Imunologia e Parasitologia AP
28/11/2016 CIÊNCIAS BIOLOGICAS SEI/ EAD-20151-2-3-4 4 4 5466-20 Planejamento e Políticas Públicas de Educação AP
28/11/2016 CIÊNCIAS BIOLOGICAS SEI/ EAD-20151-2-3-4 4 4 6760-60 Zoologia: Invertebrados AP
28/11/2016 GESTÃO HOSPITALAR SEI-20161-2-3-4 4 2 6656-40 Comunicação e Expressão SUB
28/11/2016 GESTÃO HOSPITALAR SEI-20161-2-3-4 4 2 2995-30 Dinâmica das Relações Interpessoais SUB
28/11/2016 GESTÃO HOSPITALAR SEI-20161-2-3-4 4 2 6658-60 Estrutura e Arquitetura Hospitalar SUB
28/11/2016 HISTÓRIA SEI-20141-2-3-4 4 6 6969-40 Direitos Humanos SUB
28/11/2016 HISTÓRIA SEI-20141-2-3-4 4 6 6817-40 História da Globalização SUB
28/11/2016 HISTÓRIA SEI-20141-2-3-4 4 6 6816-60 Historiografia do Brasil SUB
28/11/2016 HISTÓRIA SEI-20141-2-3-4 4 6 6943-40 Tóp de Atuação Prof - História SUB
28/11/2016 HISTÓRIA SEI-20151-2-3-4 4 4 6944-20 Didática Específica - História SUB
28/11/2016 HISTÓRIA SEI-20151-2-3-4 4 4 6810-80 História da América Contemporânea SUB
28/11/2016 HISTÓRIA SEI-20151-2-3-4 4 4 6808-40 História Interdisciplinar SUB
28/11/2016 HISTÓRIA SEI-20161-2-3-4 4 2 6639-60 História Antiga e Medieval SUB
28/11/2016 HISTÓRIA SEI-20161-2-3-4 4 2 6638-60 História do Brasil Colônia SUB
29/11/2016 ADMINISTRAÇÃO SEI/ EAD-20131-2-3-4 4 8 5610-40 Liderança: Atributos e Atribuições SUB
29/11/2016 ADMINISTRAÇÃO SEI/ EAD-20131-2-3-4 4 8 5398-60 Pesquisa Operacional SUB
29/11/2016 ADMINISTRAÇÃO SEI/ EAD-20131-2-3-4 4 8 6938-40 Tóp de Atuação Prof - Administração SUB
29/11/2016 ADMINISTRAÇÃO SEI/ EAD-20141-2-3-4 4 6 5388-40 Administração Interdisciplinar SUB
29/11/2016 ADMINISTRAÇÃO SEI/ EAD-20141-2-3-4 4 6 6233-40 Análise de Custos SUB
29/11/2016 ADMINISTRAÇÃO SEI/ EAD-20141-2-3-4 4 6 5389-60 Empreendedorismo e Plano de Negócios SUB
29/11/2016 ADMINISTRAÇÃO SEI/ EAD-20151-2-3-4 4 4 5401-60 Direito nas Organizações SUB
29/11/2016 ADMINISTRAÇÃO SEI/ EAD-20151-2-3-4 4 4 5379-80 Gestao de Pessoas SUB
29/11/2016 ADMINISTRAÇÃO SEI/ EAD-20161-2-3-4 4 2 5370-80 Contabilidade SUB
29/11/2016 ADMINISTRAÇÃO SEI/ EAD-20161-2-3-4 4 2 5372-60 Tecnologias da Informação SUB
29/11/2016 CIÊNCIAS CONTÁBEIS SEI/ EAD-20161-2-3-4 4 2 5370-80 Contabilidade SUB
29/11/2016 CIÊNCIAS CONTÁBEIS SEI/ EAD-20161-2-3-4 4 2 5372-60 Tecnologias da Informação SUB
29/11/2016 CIÊNCIAS ECONÔMICAS SEI-20141-2-3-4 4 6 6834-40 Ciências Economicas Interdisciplinar SUB
29/11/2016 CIÊNCIAS ECONÔMICAS SEI-20141-2-3-4 4 6 6832-60 Economia Internacional SUB
29/11/2016 CIÊNCIAS ECONÔMICAS SEI-20141-2-3-4 4 6 6830-80 Estatística Econômica/ Introdução à Econometria ( Permitido o uso de Calculadora Financeira HP12C e Fórmulas no AVA ) SUB
29/11/2016 CIÊNCIAS ECONÔMICAS SEI-20151-2-3-4 4 4 6825-80 História do Pensamento Econômico SUB
29/11/2016 CIÊNCIAS ECONÔMICAS SEI-20151-2-3-4 4 4 6824-80 Microeconomia em Concorrência Perfeita SUB
29/11/2016 CIÊNCIAS ECONÔMICAS SEI-20161-2-3-4 4 2 6646-40 Economia e Ética SUB
29/11/2016 CIÊNCIAS ECONÔMICAS SEI-20161-2-3-4 4 2 6647-40 Elementos de Raciocínio Lógico SUB
29/11/2016 CIÊNCIAS ECONÔMICAS SEI-20161-2-3-4 4 2 6692-60 Fundamentos de Administração SUB
29/11/2016 FÍSICA SEI-20161-2-3-4 4 2 6108-30 Educação Ambiental SUB
29/11/2016 FÍSICA SEI-20161-2-3-4 4 2 6963-90 Mecânica Clássica ( Permitido somente o uso de Calculadora Científica HP20C ) SUB
29/11/2016 FÍSICA SEI-20161-2-3-4 4 2 6642-30 Química Básica ( Permitido somente o uso de Calculadora Simples ) SUB
29/11/2016 GEOGRAFIA SEI-20141-2-3-4 4 6 6969-40 Direitos Humanos SUB
29/11/2016 GEOGRAFIA SEI-20141-2-3-4 4 6 6803-60 Geo dos Transp, Logística e Intermodalidade SUB
29/11/2016 GEOGRAFIA SEI-20141-2-3-4 4 6 6805-40 Planejamento Urbano e o Espaço Rural SUB
29/11/2016 GEOGRAFIA SEI-20141-2-3-4 4 6 6953-40 Tóp de Atuação Prof - Geografia SUB
29/11/2016 GEOGRAFIA SEI-20151-2-3-4 4 4 6954-20 Didática Específica - Geografia SUB
29/11/2016 GEOGRAFIA SEI-20151-2-3-4 4 4 6797-80 Estudos Regionais do Brasil (SE, S) SUB
29/11/2016 GEOGRAFIA SEI-20151-2-3-4 4 4 5461-20 Língua Brasileira de Sinais - Libras SUB
29/11/2016 GEOGRAFIA SEI-20151-2-3-4 4 4 5466-20 Planejamento e Políticas Públicas de Educação SUB
29/11/2016 GEOGRAFIA SEI-20161-2-3-4 4 2 6634-40 Elem de Climat; Domínios e Paisagens Vegetais SUB
29/11/2016 GEOGRAFIA SEI-20161-2-3-4 4 2 6633-60 Estudos Cartográficos - Sistemas SIG, GPS, Aerofotos SUB
29/11/2016 GEOGRAFIA SEI-20161-2-3-4 4 2 5448-40 Psicologia do Desenvolvimento e da Aprendizagem SUB
29/11/2016 GESTÃO DE RH EAD-20161/ SEI-20161-2-3-4 4 2 3043-60 Desenvolvimento de Recursos Humanos SUB
29/11/2016 GESTÃO DE RH EAD-20161/ SEI-20161-2-3-4 4 2 2995-30 Dinâmica das Relações Interpessoais SUB
29/11/2016 GESTÃO DE RH EAD-20161/ SEI-20161-2-3-4 4 2 3042-60 Suprimento de Mão de Obra SUB
29/11/2016 GESTÃO DE RH SEI/ EAD-20151-2-3-4 4 4 3027-60 Planejamento Estratégico SUB
29/11/2016 GESTÃO DE RH SEI/ EAD-20151-2-3-4 4 4 4651-30 Sistemas para Operações de Recursos Humanos SUB
29/11/2016 GESTÃO DE RH SEI/ EAD-20151-2-3-4 4 4 3048-60 Técnicas de Negociação SUB
29/11/2016 GESTÃO EM SEG. NO TRABALHO SEI-20141-2-3-4 4 6 6915-60 Comunicação e Treinamento SUB
29/11/2016 GESTÃO EM SEG. NO TRABALHO SEI-20141-2-3-4 4 6 6918-60 Normas Técnicas e Internacionais de SST SUB
29/11/2016 GESTÃO EM SEG. NO TRABALHO SEI-20141-2-3-4 4 6 6914-30 Organização do Trabalho SUB
29/11/2016 GESTÃO EM SEG. NO TRABALHO SEI-20151-2-3-4 4 4 6905-60 Espaços Confinados SUB
29/11/2016 GESTÃO EM SEG. NO TRABALHO SEI-20151-2-3-4 4 4 6904-60 Legislação Previdenciária SUB
29/11/2016 GESTÃO EM SEG. NO TRABALHO SEI-20161-2-3-4 4 2 6660-30 Biologia Aplicada SUB
29/11/2016 GESTÃO EM SEG. NO TRABALHO SEI-20161-2-3-4 4 2 6661-60 Ergonomia SUB
29/11/2016 GESTÃO EM SEG. NO TRABALHO SEI-20161-2-3-4 4 2 6663-60 Planejamento e Programas de Manutenção Industrial SUB
29/11/2016 GESTÃO HOSPITALAR SEI-20141-2-3-4 4 6 6884-30 Gestão Hospitalar Integrada SUB
29/11/2016 GESTÃO HOSPITALAR SEI-20141-2-3-4 4 6 6886-60 Serviços Laboratoriais e Exames Clínicos SUB
29/11/2016 GESTÃO HOSPITALAR SEI-20141-2-3-4 4 6 6888-60 Sistemas de Informação na Área de Saúde SUB
29/11/2016 GESTÃO HOSPITALAR SEI-20151-2-3-4 4 4 6871-60 Higiêne, Seg e Qualid de Vida no Trabalho SUB
29/11/2016 GESTÃO HOSPITALAR SEI-20151-2-3-4 4 4 6874-60 Planejamento Estratégico em Saúde SUB
29/11/2016 GESTÃO HOSPITALAR SEI-20151-2-3-4 4 4 6870-40 Saúde Pública SUB
29/11/2016 SOCIOLOGIA SEI-20141-2-3-4 4 6 6753-40 Temas Emergentes de Sociologia SUB
29/11/2016 SOCIOLOGIA SEI-20141-2-3-4 4 6 6751-40 Teoria Política Contemporânea SUB
29/11/2016 SOCIOLOGIA SEI-20141-2-3-4 4 6 6956-40 Tóp de Atuação Prof - Sociologia SUB
24/11/2016 SOCIOLOGIA SEI-20141-2-3-4 4 6 6969-40 Direitos Humanos SUB
01/12/2016 SOCIOLOGIA SEI-20151-2-3-4 4 4 6740-60 Fund de Economia para as Ciências Sociais SUB
01/12/2016 SOCIOLOGIA SEI-20151-2-3-4 4 4 5461-20 Língua Brasileira de Sinais - Libras SUB
01/12/2016 SOCIOLOGIA SEI-20151-2-3-4 4 4 5466-20 Planejamento e Políticas Públicas de Educação SUB
01/12/2016 SOCIOLOGIA SEI-20151-2-3-4 4 4 6739-40 Sociologia Interdisciplinar SUB
29/11/2016 SOCIOLOGIA SEI-20161-2-3-4 4 2 6635-40 História da Antropologia SUB
29/11/2016 SOCIOLOGIA SEI-20161-2-3-4 4 2 6636-60 Pensamento Político Moderno SUB
29/11/2016 SOCIOLOGIA SEI-20161-2-3-4 4 2 5448-40 Psicologia do Desenvolvimento e da Aprendizagem SUB
30/11/2016 CIÊNCIAS CONTÁBEIS SEI/ EAD-20131-2-3-4 4 8 6253-60 Análise das Demonstrações Contábeis ( Permitido o uso de Caculadora Simples e Fórmulas no AVA ) SUB
30/11/2016 CIÊNCIAS CONTÁBEIS SEI/ EAD-20131-2-3-4 4 8 5633-40 Avaliação de Empresas ( Permitido o uso de Caculadora Simples e Fórmulas no AVA ) SUB
30/11/2016 CIÊNCIAS CONTÁBEIS SEI/ EAD-20131-2-3-4 4 8 6941-40 Tóp de Atuação Prof - Ciências Contábeis ( Permitido o uso de Caculadora Simples e Fórmulas no AVA ) SUB
30/11/2016 CIÊNCIAS CONTÁBEIS SEI/ EAD-20141-2-3-4 4 6 5424-40 Ciências Contábeis Interdisciplinar SUB
30/11/2016 CIÊNCIAS CONTÁBEIS SEI/ EAD-20141-2-3-4 4 6 6539-60 Contabilidade Financeira SUB
30/11/2016 CIÊNCIAS CONTÁBEIS SEI/ EAD-20141-2-3-4 4 6 5622-40 Direito Social e Trabalhista SUB
30/11/2016 CIÊNCIAS CONTÁBEIS SEI/ EAD-20151-2-3-4 4 4 6242-40 Contabilidade de Custos SUB
30/11/2016 CIÊNCIAS CONTÁBEIS SEI/ EAD-20151-2-3-4 4 4 5609-40 Matemática Financeira ( Permitido o uso de Caculadora Financeira HP12C e Fórmulas no AVA ) SUB
30/11/2016 CIÊNCIAS CONTÁBEIS SEI/ EAD-20151-2-3-4 4 4 6243-60 Planejamento Contábil Tributário SUB
30/11/2016 GESTÃO AMBIENTAL SEI-20151-2-3-4 4 4 6849-30 Aval de Impactos Amb e Ger de Riscos SUB
30/11/2016 GESTÃO AMBIENTAL SEI-20151-2-3-4 4 4 6848-30 Economia Ambiental e Financiamento de Projetos SUB
30/11/2016 GESTÃO AMBIENTAL SEI-20151-2-3-4 4 4 3027-60 Planejamento Estratégico SUB
30/11/2016 GESTÃO AMBIENTAL SEI-20151-2-3-4 4 4 6851-30 Recuperação de Áreas Degradadas SUB
30/11/2016 GESTÃO AMBIENTAL SEI-20161-2-3-4 4 2 2995-30 Dinâmica das Relações Interpessoais SUB
30/11/2016 GESTÃO AMBIENTAL SEI-20161-2-3-4 4 2 6650-60 Fund de Ecologia: Ecossist e Biodiversidade SUB
30/11/2016 GESTÃO AMBIENTAL SEI-20161-2-3-4 4 2 6651-60 Química Ambiental SUB
30/11/2016 GESTÃO EM AGRONEGÓCIO SEI-20141-2-3-4 4 6 6933-60 Agricultura Internacional e o Meio Ambiente SUB
30/11/2016 GESTÃO EM AGRONEGÓCIO SEI-20141-2-3-4 4 6 6935-30 Mecanização Agrícola SUB
30/11/2016 GESTÃO EM AGRONEGÓCIO SEI-20141-2-3-4 4 6 6932-60 Mercado Futuro - II SUB
30/11/2016 GESTÃO EM AGRONEGÓCIO SEI-20151-2-3-4 4 4 6924-30 Agricultura Sustentável SUB
30/11/2016 GESTÃO EM AGRONEGÓCIO SEI-20151-2-3-4 4 4 6925-60 Cadeias Produtivas - II SUB
30/11/2016 GESTÃO EM AGRONEGÓCIO SEI-20151-2-3-4 4 4 3027-60 Planejamento Estratégico SUB
30/11/2016 GESTÃO EM AGRONEGÓCIO SEI-20161-2-3-4 4 2 2995-30 Dinâmica das Relações Interpessoais SUB
30/11/2016 GESTÃO EM AGRONEGÓCIO SEI-20161-2-3-4 4 2 6645-60 Introdução ao Agronegócio SUB
30/11/2016 GESTÃO EM AGRONEGÓCIO SEI-20161-2-3-4 4 2 4653-60 Mercado de Capitais SUB
30/11/2016 GESTÃO EM GASTRONOMIA SEI-20163-4 4 2 6967-30 Controle de Qualid e Conserv dos Alimentos SUB
30/11/2016 GESTÃO EM GASTRONOMIA SEI-20163-4 4 2 6968-60 Cozinha Fria SUB
30/11/2016 GESTÃO EM GASTRONOMIA SEI-20163-4 4 2 6966-60 Técnicas de Cozinha Profissional SUB
30/11/2016 GESTÃO EM LOGÍSTICA EAD-20161/ SEI-20161-2-3-4 4 2 2995-30 Dinâmica das Relações Interpessoais SUB
30/11/2016 GESTÃO EM LOGÍSTICA EAD-20161/ SEI-20161-2-3-4 4 2 4410-60 Planejamento e Controle de Estoques SUB
30/11/2016 GESTÃO EM LOGÍSTICA EAD-20161/ SEI-20161-2-3-4 4 2 4412-60 Planejamento e Operação por Categoria de Produto SUB
30/11/2016 GESTÃO EM LOGÍSTICA SEI/ EAD-20151-2-3-4 4 4 4418-30 Logística no Comércio Eletrônico SUB
30/11/2016 GESTÃO EM LOGÍSTICA SEI/ EAD-20151-2-3-4 4 4 4415-60 Logística para Importaçao e Exportação SUB
30/11/2016 GESTÃO EM LOGÍSTICA SEI/ EAD-20151-2-3-4 4 4 3027-60 Planejamento Estratégico SUB
30/11/2016 GESTÃO EM MARKETING SEI/ EAD-20151-2-3-4 4 4 4658-60 Estratégia Competitiva SUB
30/11/2016 GESTÃO EM MARKETING SEI/ EAD-20151-2-3-4 4 4 4659-30 Gerenciamento de Web Marketing SUB
30/11/2016 GESTÃO EM MARKETING SEI/ EAD-20151-2-3-4 4 4 3027-60 Planejamento Estratégico SUB
30/11/2016 GESTÃO EM PROC. GER. EAD-20161/ SEI-20161-2-3-4 4 2 4664-60 Desenvolvimento de Recursos Humanos SUB
30/11/2016 GESTÃO EM PROC. GER. EAD-20161/ SEI-20161-2-3-4 4 2 2995-30 Dinâmica das Relações Interpessoais SUB
30/11/2016 GESTÃO EM PROC. GER. EAD-20161/ SEI-20161-2-3-4 4 2 3031-60 Marketing SUB
30/11/2016 GESTÃO EM PROC. GER. SEI/ EAD-20151-2-3-4 4 4 5600-60 Administração de Produção e Operações SUB
30/11/2016 GESTÃO EM PROC. GER. SEI/ EAD-20151-2-3-4 4 4 5601-30 Criatividade e Inovação SUB
30/11/2016 GESTÃO EM PROC. GER. SEI/ EAD-20151-2-3-4 4 4 3027-60 Planejamento Estratégico SUB
30/11/2016 GESTÃO PÚBLICA SEI-20151-2-3-4 4 4 6895-30 Licitações e Contratos Públicos SUB
30/11/2016 GESTÃO PÚBLICA SEI-20151-2-3-4 4 4 3027-60 Planejamento Estratégico SUB
30/11/2016 GESTÃO PÚBLICA SEI-20151-2-3-4 4 4 6894-60 Planejamento Urbano e Ambiental SUB
30/11/2016 GESTÃO PÚBLICA SEI-20161-2-3-4 4 2 2995-30 Dinâmica das Relações Interpessoais SUB
30/11/2016 GESTÃO PÚBLICA SEI-20161-2-3-4 4 2 6646-60 Gestão Pública e Políticas Públicas no Brasil SUB
30/11/2016 GESTÃO PÚBLICA SEI-20161-2-3-4 4 2 6647-60 Introdução à Teoria do Estado SUB
01/12/2016 ARTES VISUAIS SEI-20141-2-3-4 4 6 6790-40 Artes Visuais Brasileiras SUB
01/12/2016 ARTES VISUAIS SEI-20141-2-3-4 4 6 6791-40 Produção Artística Visual nas Novas Mídias SUB
01/12/2016 ARTES VISUAIS SEI-20141-2-3-4 4 6 6952-40 Tóp de Atuação Prof - Artes Visuais SUB
01/12/2016 ARTES VISUAIS SEI-20151-2-3-4 4 4 6782-80 Arte e Estética SUB
01/12/2016 ARTES VISUAIS SEI-20151-2-3-4 4 4 6780-40 Artes Visuais Interdisciplinar SUB
01/12/2016 ARTES VISUAIS SEI-20151-2-3-4 4 4 5466-20 Planejamento e Políticas Públicas de Educação SUB
01/12/2016 ARTES VISUAIS SEI-20161-2-3-4 4 2 6682-60 Composição e Projeto Gráfico SUB
01/12/2016 ARTES VISUAIS SEI-20161-2-3-4 4 2 6681-60 Fotografia - Princípios e Técnicas SUB
01/12/2016 GESTÃO EM MARKETING EAD-20161/ SEI-20161-2-3-4 4 2 3026-60 Composto de Comunicaçao SUB
01/12/2016 GESTÃO EM MARKETING EAD-20161/ SEI-20161-2-3-4 4 2 2995-30 Dinâmica das Relações Interpessoais SUB
01/12/2016 GESTÃO EM MARKETING EAD-20161/ SEI-20161-2-3-4 4 2 3023-60 Pesquisa de Mercado SUB
01/12/2016 PEDAGOGIA SEI/ EAD-20141-2-3-4 4 6 6258-60 Avaliação Educacional SUB
01/12/2016 PEDAGOGIA SEI/ EAD-20141-2-3-4 4 6 6524-40 Did e Metod do Ens Médio: Normal e Ed. Prof SUB
01/12/2016 PEDAGOGIA SEI/ EAD-20141-2-3-4 4 6 6949-40 Tóp de Atuação Prof - Pedagogia SUB
01/12/2016 PEDAGOGIA SEI/ EAD-20151-2-3-4 4 4 6569-60 Metod de Arte e Movimento: Corporeidade SUB
01/12/2016 PEDAGOGIA SEI/ EAD-20151-2-3-4 4 4 5660-60 Metod e Prát do Ens da Matemática e Ciências SUB
01/12/2016 PEDAGOGIA SEI/ EAD-20151-2-3-4 4 4 5662-60 Metod e Prát do Ens de Língua Portuguesa SUB
01/12/2016 PEDAGOGIA SEI/ EAD-20161-2-3-4 4 2 6567-40 Fundamentos de Filosofia e Educação SUB
01/12/2016 PEDAGOGIA SEI/ EAD-20161-2-3-4 4 2 6255-60 Psic do Desenv e Teorias da Aprendizagem SUB
01/12/2016 PEDAGOGIA SEI/ EAD-20161-2-3-4 4 2 6566-60 Tecnol da Inform e Comunic em Educação SUB
01/12/2016 QUÍMICA SEI-20163-4 4 2 6108-30 Educação Ambiental SUB
01/12/2016 QUÍMICA SEI-20163-4 4 2 5495-90 Informática SUB
01/12/2016 QUÍMICA SEI-20163-4 4 2 6642-60 Química Geral SUB
01/12/2016 SERVIÇO SOCIAL EAD-20161/ SEI-20161-2-3-4 4 2 6123-40 Antropologia e Cultura Brasileira SUB
01/12/2016 SERVIÇO SOCIAL EAD-20161/ SEI-20161-2-3-4 4 2 5565-60 Introduçao ao Pensamento Sociológico SUB
01/12/2016 SERVIÇO SOCIAL EAD-20161/ SEI-20161-2-3-4 4 2 5561-40 Legislaçao Social e Previdenciária SUB
01/12/2016 SERVIÇO SOCIAL SEI/ EAD-2013-3-4 4 8 5555-60 Direito Constitucional SUB
01/12/2016 SERVIÇO SOCIAL SEI/ EAD-2013-3-4 4 8 6505-60 Perspectivas Profissionais em Serviço Social SUB
01/12/2016 SERVIÇO SOCIAL SEI/ EAD-2013-3-4 4 8 5558-40 Princípios Básicos de Administração SUB
01/12/2016 SERVIÇO SOCIAL SEI/ EAD-20141-2-3-4 4 6 6139-40 Serviço Social em Equipe Multidisciplinar SUB
01/12/2016 SERVIÇO SOCIAL SEI/ EAD-20141-2-3-4 4 6 5587-40 Serviço Social Integrado SUB
01/12/2016 SERVIÇO SOCIAL SEI/ EAD-20141-2-3-4 4 6 6518-60 Supervisão de Intervenção Profissional SUB
01/12/2016 SERVIÇO SOCIAL SEI/ EAD-20151-2-3-4 4 4 6509-40 Ética Profissional SUB
01/12/2016 SERVIÇO SOCIAL SEI/ EAD-20151-2-3-4 4 4 6508-40 Movimentos Sociais Contemporâneos SUB
01/12/2016 SERVIÇO SOCIAL SEI/ EAD-20151-2-3-4 4 4 6131-60 Observação Orientada (Supervisão) SUB
02/12/2016 GESTÃO FINANCEIRA SEI-20151-2-3-4 4 4 3011-60 Análise de Investimentos SUB
02/12/2016 GESTÃO FINANCEIRA SEI-20151-2-3-4 4 4 3027-60 Planejamento Estratégico SUB
02/12/2016 GESTÃO FINANCEIRA SEI-20151-2-3-4 4 4 4655-30 Tecnol da Inform Aplic à Area Financeira SUB
02/12/2016 GESTÃO FINANCEIRA SEI-20161-2-3-4 4 2 4652-60 Análise das Demonstrações Financeiras SUB
02/12/2016 GESTÃO FINANCEIRA SEI-20161-2-3-4 4 2 2995-30 Dinâmica das Relações Interpessoais SUB
02/12/2016 GESTÃO FINANCEIRA SEI-20161-2-3-4 4 2 3004-60 Orçamento Empresarial SUB
02/12/2016 LETRAS ESPANHOL SEI-20151-2-3-4 4 4 5461-20 Língua Brasileira de Sinais - Libras SUB
02/12/2016 LETRAS ESPANHOL SEI-20151-2-3-4 4 4 6265-60 Morfossintaxe Aplicada da Língua Portuguesa SUB
02/12/2016 LETRAS ESPANHOL SEI-20151-2-3-4 4 4 5466-20 Planejamento e Políticas Públicas de Educação SUB
02/12/2016 LETRAS ESPANHOL SEI-20151-2-3-4 4 4 6266-40 Relações Ciência, Tecnologia e Sociedade SUB
02/12/2016 LETRAS ESPANHOL SEI-20161-2-3-4 4 2 6263-60 Semântica e Pragmática SUB
02/12/2016 LETRAS ESPANHOL SEI-20161-2-3-4 4 2 6262-60 Teoria Literária SUB
02/12/2016 LETRAS INGLÊS EAD-20161/ SEI-20161-2-3-4 4 2 6263-60 Semântica e Pragmática SUB
02/12/2016 LETRAS INGLÊS EAD-20161/ SEI-20161-2-3-4 4 2 6262-60 Teoria Literária SUB
02/12/2016 LETRAS INGLÊS SEI/ EAD-20151-2-3-4 4 4 5461-20 Língua Brasileira de Sinais - Libras SUB
02/12/2016 LETRAS INGLÊS SEI/ EAD-20151-2-3-4 4 4 6265-60 Morfossintaxe Aplicada da Língua Portuguesa SUB
02/12/2016 LETRAS INGLÊS SEI/ EAD-20151-2-3-4 4 4 5466-20 Planejamento e Políticas Públicas de Educação SUB
02/12/2016 LETRAS INGLÊS SEI/ EAD-20151-2-3-4 4 4 6266-40 Relações Ciência, Tecnologia e Sociedade SUB
02/12/2016 LETRAS PORTUGUÊS EAD-20161/ SEI-20161-2-3-4 4 2 6263-60 Semântica e Pragmática SUB
02/12/2016 LETRAS PORTUGUÊS EAD-20161/ SEI-20161-2-3-4 4 2 6262-60 Teoria Literária SUB
02/12/2016 LETRAS PORTUGUÊS SEI/ EAD-20151-2-3-4 4 4 5461-20 Língua Brasileira de Sinais - Libras SUB
02/12/2016 LETRAS PORTUGUÊS SEI/ EAD-20151-2-3-4 4 4 6265-60 Morfossintaxe Aplicada da Língua Portuguesa SUB
02/12/2016 LETRAS PORTUGUÊS SEI/ EAD-20151-2-3-4 4 4 5466-20 Planejamento e Políticas Públicas de Educação SUB
02/12/2016 LETRAS PORTUGUÊS SEI/ EAD-20151-2-3-4 4 4 6266-40 Relações Ciência, Tecnologia e Sociedade SUB
02/12/2016 MATEMÁTICA SEI-20141-2-3-4 4 6 6156-40 Complementos de Análise Matemática SUB
02/12/2016 MATEMÁTICA SEI-20141-2-3-4 4 6 5512-80 Complementos de Física SUB
02/12/2016 MATEMÁTICA SEI-20141-2-3-4 4 6 6152-40 Probabilidade e Estatística SUB
02/12/2016 MATEMÁTICA SEI-20161-2-3-4 4 2 5500-60 Geometria Plana SUB
02/12/2016 MATEMÁTICA SEI-20161-2-3-4 4 2 5638-40 Lógica Matemática SUB
02/12/2016 MATEMÁTICA SEI-20161-2-3-4 4 2 5448-40 Psicologia do Desenvolvimento e da Aprendizagem SUB
02/12/2016 MATEMÁTICA SEI-2016-4 4 2 6147-60 Cálculo Diferencial de Uma Variável SUB
05/12 A 10/12/2016 Turma de Dependência ( DP ) Graduação e Gestão Todos Todas SUB
05/12/2016 CIÊNCIAS BIOLOGICAS EAD-20161/ SEI-20161-2-3-4 4 2 6643-60 Citologia SUB
05/12/2016 CIÊNCIAS BIOLOGICAS EAD-20161/ SEI-20161-2-3-4 4 2 6644-60 Ecossistemas Terrestres SUB
05/12/2016 CIÊNCIAS BIOLOGICAS EAD-20161/ SEI-20161-2-3-4 4 2 6641-40 Matemática e Bioestatística SUB
05/12/2016 CIÊNCIAS BIOLOGICAS SEI/ EAD-20141-2-3-4 4 6 6772-40 Ciências Biológicas Interdisciplinar SUB
05/12/2016 CIÊNCIAS BIOLOGICAS SEI/ EAD-20141-2-3-4 4 6 6969-40 Direitos Humanos SUB
05/12/2016 CIÊNCIAS BIOLOGICAS SEI/ EAD-20141-2-3-4 4 6 6774-60 Evolução SUB
05/12/2016 CIÊNCIAS BIOLOGICAS SEI/ EAD-20141-2-3-4 4 6 6773-60 Geologia e Paleontologia SUB
05/12/2016 CIÊNCIAS BIOLOGICAS SEI/ EAD-20151-2-3-4 4 4 6762-40 Bioquímica Metabólica SUB
05/12/2016 CIÊNCIAS BIOLOGICAS SEI/ EAD-20151-2-3-4 4 4 6761-60 Imunologia e Parasitologia SUB
05/12/2016 CIÊNCIAS BIOLOGICAS SEI/ EAD-20151-2-3-4 4 4 5466-20 Planejamento e Políticas Públicas de Educação SUB
05/12/2016 CIÊNCIAS BIOLOGICAS SEI/ EAD-20151-2-3-4 4 4 6760-60 Zoologia: Invertebrados SUB
12/12 A 17/12/2016 Turma de Dependência ( DP ) Graduação e Gestão Todos Todas EX
12/12/2016 ADMINISTRAÇÃO SEI/ EAD-20131-2-3-4 3 8 5402-40 Formação de Preços de Venda EX
12/12/2016 ADMINISTRAÇÃO SEI/ EAD-20131-2-3-4 3 8 5392-80 Gestao Mercadológica EX
12/12/2016 ADMINISTRAÇÃO SEI/ EAD-20131-2-3-4 3 8 5611-40 Governança Corporativa EX
12/12/2016 ADMINISTRAÇÃO SEI/ EAD-20131-2-3-4 4 8 5610-40 Liderança: Atributos e Atribuições EX
12/12/2016 ADMINISTRAÇÃO SEI/ EAD-20131-2-3-4 4 8 5398-60 Pesquisa Operacional EX
12/12/2016 ADMINISTRAÇÃO SEI/ EAD-20131-2-3-4 4 8 6938-40 Tóp de Atuação Prof - Administração EX
12/12/2016 ADMINISTRAÇÃO SEI/ EAD-20141-2-3-4 4 6 5388-40 Administração Interdisciplinar EX
12/12/2016 ADMINISTRAÇÃO SEI/ EAD-20141-2-3-4 4 6 6233-40 Análise de Custos EX
12/12/2016 ADMINISTRAÇÃO SEI/ EAD-20141-2-3-4 4 6 5389-60 Empreendedorismo e Plano de Negócios EX
12/12/2016 ADMINISTRAÇÃO SEI/ EAD-20141-2-3-4 3 6 5390-40 Estatística Aplicada EX
12/12/2016 ADMINISTRAÇÃO SEI/ EAD-20141-2-3-4 3 6 5391-80 Gestão das Operações Produtivas EX
12/12/2016 ADMINISTRAÇÃO SEI/ EAD-20141-2-3-4 3 6 5393-40 Métodos de Pesquisa EX
12/12/2016 ADMINISTRAÇÃO SEI/ EAD-20151-2-3-4 4 4 5401-60 Direito nas Organizações EX
12/12/2016 ADMINISTRAÇÃO SEI/ EAD-20151-2-3-4 4 4 5379-80 Gestao de Pessoas EX
12/12/2016 ADMINISTRAÇÃO SEI/ EAD-20151-2-3-4 3 4 5380-40 Matemática Aplicada EX
12/12/2016 ADMINISTRAÇÃO SEI/ EAD-20151-2-3-4 3 4 5609-40 Matemática Financeira ( Permitido o uso de Caculadora Financeira HP12C e Fórmulas no AVA ) EX
12/12/2016 ADMINISTRAÇÃO SEI/ EAD-20151-2-3-4 3 4 5381-80 Processos Organizacionais EX
12/12/2016 ADMINISTRAÇÃO SEI/ EAD-20161-2-3-4 3 2 5368-40 Ciências Sociais EX
12/12/2016 ADMINISTRAÇÃO SEI/ EAD-20161-2-3-4 3 2 5369-40 Comunicação e Expressão EX
12/12/2016 ADMINISTRAÇÃO SEI/ EAD-20161-2-3-4 3 2 5371-80 Evoluçao do Pensamento Administrativo EX
12/12/2016 ADMINISTRAÇÃO SEI/ EAD-20161-2-3-4 4 2 5370-80 Contabilidade EX
12/12/2016 ADMINISTRAÇÃO SEI/ EAD-20161-2-3-4 4 2 5372-60 Tecnologias da Informação EX
12/12/2016 ARTES VISUAIS SEI-20141-2-3-4 3 6 6789-60 Artes Visuais na Rede EX
12/12/2016 ARTES VISUAIS SEI-20141-2-3-4 3 6 6969-40 Direitos Humanos EX
12/12/2016 ARTES VISUAIS SEI-20141-2-3-4 3 6 6788-40 Ética, Legislação e Direito Autoral EX
12/12/2016 ARTES VISUAIS SEI-20141-2-3-4 3 6 5393-40 Métodos de Pesquisa EX
12/12/2016 ARTES VISUAIS SEI-20141-2-3-4 4 6 6791-40 Produção Artística Visual nas Novas Mídias EX
12/12/2016 ARTES VISUAIS SEI-20141-2-3-4 4 6 6952-40 Tóp de Atuação Prof - Artes Visuais EX
12/12/2016 ARTES VISUAIS SEI-20141-2-3-4 4 6 6790-40 Artes Visuais Brasileiras EX
12/12/2016 ARTES VISUAIS SEI-20151-2-3-4 3 4 6781-80 Artes Visuais Renascimento EX
12/12/2016 ARTES VISUAIS SEI-20151-2-3-4 3 4 6951-20 Didática Específica - Artes Visuais EX
12/12/2016 ARTES VISUAIS SEI-20151-2-3-4 3 4 5461-20 Língua Brasileira de Sinais - Libras EX
12/12/2016 ARTES VISUAIS SEI-20151-2-3-4 4 4 5466-20 Planejamento e Políticas Públicas de Educação EX
12/12/2016 ARTES VISUAIS SEI-20151-2-3-4 4 4 6782-80 Arte e Estética EX
12/12/2016 ARTES VISUAIS SEI-20151-2-3-4 4 4 6780-40 Artes Visuais Interdisciplinar EX
12/12/2016 ARTES VISUAIS SEI-20161-2-3-4 3 2 5448-40 Psicologia do Desenvolvimento e da Aprendizagem EX
12/12/2016 ARTES VISUAIS SEI-20161-2-3-4 3 2 6680-40 Artes Visuais na História Antiga EX
12/12/2016 ARTES VISUAIS SEI-20161-2-3-4 3 2 5368-40 Ciências Sociais EX
12/12/2016 ARTES VISUAIS SEI-20161-2-3-4 3 2 5369-40 Comunicação e Expressão EX
12/12/2016 ARTES VISUAIS SEI-20161-2-3-4 4 2 6681-60 Fotografia - Princípios e Técnicas EX
12/12/2016 ARTES VISUAIS SEI-20161-2-3-4 4 2 6682-60 Composição e Projeto Gráfico EX
12/12/2016 CIÊNCIAS BIOLOGICAS EAD-20161/ SEI-20161-2-3-4 3 2 5448-40 Psicologia do Desenvolvimento e da Aprendizagem EX
12/12/2016 CIÊNCIAS BIOLOGICAS EAD-20161/ SEI-20161-2-3-4 3 2 6642-60 Química Geral (Permitido uso de Tabela Períodica no AVA) EX
12/12/2016 CIÊNCIAS BIOLOGICAS EAD-20161/ SEI-20161-2-3-4 3 2 5368-40 Ciências Sociais EX
12/12/2016 CIÊNCIAS BIOLOGICAS EAD-20161/ SEI-20161-2-3-4 3 2 5369-40 Comunicação e Expressão EX
12/12/2016 CIÊNCIAS BIOLOGICAS EAD-20161/ SEI-20161-2-3-4 4 2 6644-60 Ecossistemas Terrestres EX
12/12/2016 CIÊNCIAS BIOLOGICAS EAD-20161/ SEI-20161-2-3-4 4 2 6641-40 Matemática e Bioestatística EX
12/12/2016 CIÊNCIAS BIOLOGICAS EAD-20161/ SEI-20161-2-3-4 4 2 6643-60 Citologia EX
12/12/2016 CIÊNCIAS BIOLOGICAS SEI/ EAD-20141-2-3-4 3 6 6775-40 Fisiologia Vegetal EX
12/12/2016 CIÊNCIAS BIOLOGICAS SEI/ EAD-20141-2-3-4 3 6 5393-40 Métodos de Pesquisa EX
12/12/2016 CIÊNCIAS BIOLOGICAS SEI/ EAD-20141-2-3-4 3 6 6940-20 Tóp de Atuação Prof - Ciências Bio EX
12/12/2016 CIÊNCIAS BIOLOGICAS SEI/ EAD-20141-2-3-4 3 6 6771-60 Zoologia de Vertebrados EX
12/12/2016 CIÊNCIAS BIOLOGICAS SEI/ EAD-20141-2-3-4 4 6 6773-60 Geologia e Paleontologia EX
12/12/2016 CIÊNCIAS BIOLOGICAS SEI/ EAD-20141-2-3-4 4 6 6772-40 Ciências Biológicas Interdisciplinar EX
12/12/2016 CIÊNCIAS BIOLOGICAS SEI/ EAD-20141-2-3-4 4 6 6969-40 Direitos Humanos EX
12/12/2016 CIÊNCIAS BIOLOGICAS SEI/ EAD-20141-2-3-4 4 6 6774-60 Evolução EX
12/12/2016 CIÊNCIAS BIOLOGICAS SEI/ EAD-20151-2-3-4 3 4 6764-60 Botânica - Fanerogamas EX
12/12/2016 CIÊNCIAS BIOLOGICAS SEI/ EAD-20151-2-3-4 3 4 6939-20 Didática Específica - Ciências Bio EX
12/12/2016 CIÊNCIAS BIOLOGICAS SEI/ EAD-20151-2-3-4 3 4 6763-80 Fisiologia EX
12/12/2016 CIÊNCIAS BIOLOGICAS SEI/ EAD-20151-2-3-4 3 4 5461-20 Língua Brasileira de Sinais - Libras EX
12/12/2016 CIÊNCIAS BIOLOGICAS SEI/ EAD-20151-2-3-4 4 4 6762-40 Bioquímica Metabólica EX
12/12/2016 CIÊNCIAS BIOLOGICAS SEI/ EAD-20151-2-3-4 4 4 6761-60 Imunologia e Parasitologia EX
12/12/2016 CIÊNCIAS BIOLOGICAS SEI/ EAD-20151-2-3-4 4 4 5466-20 Planejamento e Políticas Públicas de Educação EX
12/12/2016 CIÊNCIAS BIOLOGICAS SEI/ EAD-20151-2-3-4 4 4 6760-60 Zoologia: Invertebrados EX
12/12/2016 CIÊNCIAS CONTÁBEIS SEI/ EAD-20131-2-3-4 3 8 6278-40 Contabilidade Avançada EX
12/12/2016 CIÊNCIAS CONTÁBEIS SEI/ EAD-20131-2-3-4 3 8 5611-40 Governança Corporativa EX
12/12/2016 CIÊNCIAS CONTÁBEIS SEI/ EAD-20131-2-3-4 3 8 6542-80 Normas Internacionais de Contabilidade EX
12/12/2016 CIÊNCIAS CONTÁBEIS SEI/ EAD-20131-2-3-4 4 8 6253-60 Análise das Demonstrações Contábeis ( Permitido o uso de Caculadora Simples e Fórmulas no AVA ) EX
12/12/2016 CIÊNCIAS CONTÁBEIS SEI/ EAD-20131-2-3-4 4 8 5633-40 Avaliação de Empresas ( Permitido o uso de Caculadora Simples e Fórmulas no AVA ) EX
12/12/2016 CIÊNCIAS CONTÁBEIS SEI/ EAD-20131-2-3-4 4 8 6941-40 Tóp de Atuação Prof - Ciências Contábeis ( Permitido o uso de Caculadora Simples e Fórmulas no AVA ) EX
12/12/2016 CIÊNCIAS CONTÁBEIS SEI/ EAD-20141-2-3-4 3 6 5393-40 Métodos de Pesquisa EX
12/12/2016 CIÊNCIAS CONTÁBEIS SEI/ EAD-20141-2-3-4 3 6 5393-40 Métodos de Pesquisa EX
12/12/2016 CIÊNCIAS CONTÁBEIS SEI/ EAD-20141-2-3-4 3 6 6250-80 Contabilidade Pública e Governamental EX
12/12/2016 CIÊNCIAS CONTÁBEIS SEI/ EAD-20141-2-3-4 3 6 5419-40 Análise de Custos EX
12/12/2016 CIÊNCIAS CONTÁBEIS SEI/ EAD-20141-2-3-4 4 6 5424-40 Ciências Contábeis Interdisciplinar EX
12/12/2016 CIÊNCIAS CONTÁBEIS SEI/ EAD-20141-2-3-4 4 6 6539-60 Contabilidade Financeira EX
12/12/2016 CIÊNCIAS CONTÁBEIS SEI/ EAD-20141-2-3-4 4 6 5622-40 Direito Social e Trabalhista EX
12/12/2016 CIÊNCIAS CONTÁBEIS SEI/ EAD-20151-2-3-4 3 4 6241-80 Contabilidade Intermediária EX
12/12/2016 CIÊNCIAS CONTÁBEIS SEI/ EAD-20151-2-3-4 3 4 5616-40 Direito Tributário EX
12/12/2016 CIÊNCIAS CONTÁBEIS SEI/ EAD-20151-2-3-4 3 4 6244-40 Mercado Financeiro e de Capitais EX
12/12/2016 CIÊNCIAS CONTÁBEIS SEI/ EAD-20151-2-3-4 4 4 6242-40 Contabilidade de Custos EX
12/12/2016 CIÊNCIAS CONTÁBEIS SEI/ EAD-20151-2-3-4 4 4 5609-40 Matemática Financeira ( Permitido o uso de Caculadora Financeira HP12C e Fórmulas no AVA ) EX
12/12/2016 CIÊNCIAS CONTÁBEIS SEI/ EAD-20151-2-3-4 4 4 6243-60 Planejamento Contábil Tributário EX
12/12/2016 CIÊNCIAS CONTÁBEIS SEI/ EAD-20161-2-3-4 3 2 5368-40 Ciências Sociais EX
12/12/2016 CIÊNCIAS CONTÁBEIS SEI/ EAD-20161-2-3-4 3 2 5369-40 Comunicação e Expressão EX
12/12/2016 CIÊNCIAS CONTÁBEIS SEI/ EAD-20161-2-3-4 3 2 5371-80 Evoluçao do Pensamento Administrativo EX
12/12/2016 CIÊNCIAS CONTÁBEIS SEI/ EAD-20161-2-3-4 4 2 5370-80 Contabilidade EX
12/12/2016 CIÊNCIAS CONTÁBEIS SEI/ EAD-20161-2-3-4 4 2 5372-60 Tecnologias da Informação EX
12/12/2016 CIÊNCIAS ECONÔMICAS SEI-20141-2-3-4 3 6 6833-40 Macroeconomia Aberta EX
12/12/2016 CIÊNCIAS ECONÔMICAS SEI-20141-2-3-4 3 6 5393-40 Métodos de Pesquisa EX
12/12/2016 CIÊNCIAS ECONÔMICAS SEI-20141-2-3-4 3 6 6831-40 Técnicas de Pesquisa em Economia EX
12/12/2016 CIÊNCIAS ECONÔMICAS SEI-20141-2-3-4 4 6 6834-40 Ciências Economicas Interdisciplinar EX
12/12/2016 CIÊNCIAS ECONÔMICAS SEI-20141-2-3-4 4 6 6832-60 Economia Internacional EX
12/12/2016 CIÊNCIAS ECONÔMICAS SEI-20141-2-3-4 4 6 6830-80 Estatística Econômica/ Introdução à Econometria ( Permitido o uso de Calculadora Financeira HP12C e Fórmulas no AVA ) EX
12/12/2016 CIÊNCIAS ECONÔMICAS SEI-20151-2-3-4 3 4 6823-40 Contabilidade Social EX
12/12/2016 CIÊNCIAS ECONÔMICAS SEI-20151-2-3-4 3 4 6822-60 Formação Economica do Brasil Contemporâneo EX
12/12/2016 CIÊNCIAS ECONÔMICAS SEI-20151-2-3-4 3 4 5609-40 Matemática Financeira ( Permitido o uso de Caculadora Financeira HP12C e Fórmulas no AVA ) EX
12/12/2016 CIÊNCIAS ECONÔMICAS SEI-20151-2-3-4 4 4 6825-80 História do Pensamento Econômico EX
12/12/2016 CIÊNCIAS ECONÔMICAS SEI-20151-2-3-4 4 4 6824-80 Microeconomia em Concorrência Perfeita EX
12/12/2016 CIÊNCIAS ECONÔMICAS SEI-20161-2-3-4 3 2 5368-40 Ciências Sociais EX
12/12/2016 CIÊNCIAS ECONÔMICAS SEI-20161-2-3-4 3 2 5369-40 Comunicação e Expressão EX
12/12/2016 CIÊNCIAS ECONÔMICAS SEI-20161-2-3-4 3 2 6648-80 Matemática para Economia EX
12/12/2016 CIÊNCIAS ECONÔMICAS SEI-20161-2-3-4 4 2 6646-40 Economia e Ética EX
12/12/2016 CIÊNCIAS ECONÔMICAS SEI-20161-2-3-4 4 2 6647-40 Elementos de Raciocínio Lógico EX
12/12/2016 CIÊNCIAS ECONÔMICAS SEI-20161-2-3-4 4 2 6692-60 Fundamentos de Administração EX
12/12/2016 FÍSICA SEI-20163-4 3 2 5366-30 Interpretação e Produção de Textos EX
12/12/2016 FÍSICA SEI-20163-4 3 2 6531-90 Matemática ( Permitido o uso de Caculadora Simples ou Científica HP20C ) EX
12/12/2016 FÍSICA SEI-20163-4 4 2 6108-30 Educação Ambiental EX
12/12/2016 FÍSICA SEI-20163-4 4 2 6963-90 Mecânica Clássica (Permitido somente o uso de Calculadora Científica HP20C ) EX
12/12/2016 FÍSICA SEI-20163-4 4 2 6642-30 Química Básica ( Permitido somente o uso de Calculadora Simples ) EX
12/12/2016 GEOGRAFIA SEI-20141-2-3-4 3 6 6108-40 Educação Ambiental EX
12/12/2016 GEOGRAFIA SEI-20141-2-3-4 3 6 5393-40 Métodos de Pesquisa EX
12/12/2016 GEOGRAFIA SEI-20141-2-3-4 3 6 6804-80 Recursos Naturais e Fontes de Energia EX
12/12/2016 GEOGRAFIA SEI-20141-2-3-4 4 6 6969-40 Direitos Humanos EX
12/12/2016 GEOGRAFIA SEI-20141-2-3-4 4 6 6803-60 Geo dos Transp, Logística e Intermodalidade EX
12/12/2016 GEOGRAFIA SEI-20141-2-3-4 4 6 6805-40 Planejamento Urbano e o Espaço Rural EX
12/12/2016 GEOGRAFIA SEI-20141-2-3-4 4 6 6953-40 Tóp de Atuação Prof - Geografia EX
12/12/2016 GEOGRAFIA SEI-20151-2-3-4 3 4 6108-40 Educação Ambiental EX
12/12/2016 GEOGRAFIA SEI-20151-2-3-4 3 4 6796-80 Estudos Regionais do Brasil (Amazônia, NE, CO) EX
12/12/2016 GEOGRAFIA SEI-20151-2-3-4 3 4 6795-40 Geografia Interdisciplinar EX
12/12/2016 GEOGRAFIA SEI-20151-2-3-4 4 4 6954-20 Didática Específica - Geografia EX
12/12/2016 GEOGRAFIA SEI-20151-2-3-4 4 4 6797-80 Estudos Regionais do Brasil (SE, S) EX
12/12/2016 GEOGRAFIA SEI-20151-2-3-4 4 4 5461-20 Língua Brasileira de Sinais - Libras EX
12/12/2016 GEOGRAFIA SEI-20151-2-3-4 4 4 5466-20 Planejamento e Políticas Públicas de Educação EX
12/12/2016 GEOGRAFIA SEI-20161-2-3-4 3 2 5368-40 Ciências Sociais EX
12/12/2016 GEOGRAFIA SEI-20161-2-3-4 3 2 5369-40 Comunicação e Expressão EX
12/12/2016 GEOGRAFIA SEI-20161-2-3-4 3 2 6632-60 Geologia, Geomorfologia, Relevo Terrestre e do Brasil EX
12/12/2016 GEOGRAFIA SEI-20161-2-3-4 4 2 6634-40 Elem de Climat; Domínios e Paisagens Vegetais EX
12/12/2016 GEOGRAFIA SEI-20161-2-3-4 4 2 6633-60 Estudos Cartográficos - Sistemas SIG, GPS, Aerofotos EX
12/12/2016 GEOGRAFIA SEI-20161-2-3-4 4 2 5448-40 Psicologia do Desenvolvimento e da Aprendizagem EX
12/12/2016 GESTÃO AMBIENTAL SEI-20151-2-3-4 3 4 3001-30 Desenvolvimento Sustentável EX
12/12/2016 GESTÃO AMBIENTAL SEI-20151-2-3-4 3 4 6850-60 Direito e Legislação Ambiental EX
12/12/2016 GESTÃO AMBIENTAL SEI-20151-2-3-4 3 4 6853-30 Gestão de Recursos Energéticos EX
12/12/2016 GESTÃO AMBIENTAL SEI-20151-2-3-4 3 4 6852-30 Monitoramento e Controle de Poluição Ambiental EX
12/12/2016 GESTÃO AMBIENTAL SEI-20151-2-3-4 4 4 3027-60 Planejamento Estratégico EX
12/12/2016 GESTÃO AMBIENTAL SEI-20151-2-3-4 4 4 6851-30 Recuperação de Áreas Degradadas EX
12/12/2016 GESTÃO AMBIENTAL SEI-20151-2-3-4 4 4 6849-30 Aval de Impactos Amb e Ger de Riscos EX
12/12/2016 GESTÃO AMBIENTAL SEI-20151-2-3-4 4 4 6848-30 Economia Ambiental e Financiamento de Projetos EX
12/12/2016 GESTÃO AMBIENTAL SEI-20161-2-3-4 3 2 6652-30 Saúde Ambiental EX
12/12/2016 GESTÃO AMBIENTAL SEI-20161-2-3-4 3 2 4649-60 Contabilidade EX
12/12/2016 GESTÃO AMBIENTAL SEI-20161-2-3-4 3 2 2999-30 Estatística Aplicada EX
12/12/2016 GESTÃO AMBIENTAL SEI-20161-2-3-4 3 2 6649-30 Estratégia de Marketing Ambiental EX
12/12/2016 GESTÃO AMBIENTAL SEI-20161-2-3-4 4 2 6650-60 Fund de Ecologia: Ecossist e Biodiversidade EX
12/12/2016 GESTÃO AMBIENTAL SEI-20161-2-3-4 4 2 6651-60 Química Ambiental EX
12/12/2016 GESTÃO AMBIENTAL SEI-20161-2-3-4 4 2 2995-30 Dinâmica das Relações Interpessoais EX
12/12/2016 GESTÃO DE RH EAD-20161/ SEI-20161-2-3-4 3 2 4649-60 Contabilidade EX
12/12/2016 GESTÃO DE RH EAD-20161/ SEI-20161-2-3-4 3 2 2999-30 Estatística Aplicada EX
12/12/2016 GESTÃO DE RH EAD-20161/ SEI-20161-2-3-4 3 2 3041-60 Gerenciamento de Pessoas EX
12/12/2016 GESTÃO DE RH EAD-20161/ SEI-20161-2-3-4 4 2 3043-60 Desenvolvimento de Recursos Humanos EX
12/12/2016 GESTÃO DE RH EAD-20161/ SEI-20161-2-3-4 4 2 2995-30 Dinâmica das Relações Interpessoais EX
12/12/2016 GESTÃO DE RH EAD-20161/ SEI-20161-2-3-4 4 2 3042-60 Suprimento de Mão de Obra EX
12/12/2016 GESTÃO DE RH SEI/ EAD-20151-2-3-4 3 4 3001-30 Desenvolvimento Sustentável EX
12/12/2016 GESTÃO DE RH SEI/ EAD-20151-2-3-4 3 4 3049-60 Saúde e Seg no Trabalho: Benef e Assist Social EX
12/12/2016 GESTÃO DE RH SEI/ EAD-20151-2-3-4 3 4 3050-60 Treinamento e Desenvolvimento EX
12/12/2016 GESTÃO DE RH SEI/ EAD-20151-2-3-4 4 4 3027-60 Planejamento Estratégico EX
12/12/2016 GESTÃO DE RH SEI/ EAD-20151-2-3-4 4 4 4651-30 Sistemas para Operações de Recursos Humanos EX
12/12/2016 GESTÃO DE RH SEI/ EAD-20151-2-3-4 4 4 3048-60 Técnicas de Negociação EX
12/12/2016 GESTÃO DE TI EAD-20161/ SEI-20161-2-3-4 3 2 3073-60 Sistemas de Informação EX
12/12/2016 GESTÃO DE TI EAD-20161/ SEI-20161-2-3-4 3 2 3069-60 Administração de Banco de Dados EX
12/12/2016 GESTÃO DE TI EAD-20161/ SEI-20161-2-3-4 3 2 3074-50 Ética e Legislação Profissional EX
12/12/2016 GESTÃO DE TI EAD-20161/ SEI-20161-2-3-4 3 2 3071-60 Matemática Aplicada EX
12/12/2016 GESTÃO DE TI EAD-20161/ SEI-20161-2-3-4 4 2 3075-50 Metodologia Científica EX
12/12/2016 GESTÃO DE TI EAD-20161/ SEI-20161-2-3-4 4 2 3072-60 Modelagem de Processos EX
12/12/2016 GESTÃO DE TI EAD-20161/ SEI-20161-2-3-4 4 2 3070-60 Redes de Computadores e Telecomunicaçao EX
12/12/2016 GESTÃO DE TI SEI/ EAD-20151-2-3-4 3 4 3088-50 Gestão da Qualidade EX
12/12/2016 GESTÃO DE TI SEI/ EAD-20151-2-3-4 3 4 3085-120 Governança de TI EX
12/12/2016 GESTÃO DE TI SEI/ EAD-20151-2-3-4 3 4 3083-60 Sistemas para Internet e Software Livre EX
12/12/2016 GESTÃO DE TI SEI/ EAD-20151-2-3-4 4 4 3087-50 Empreendedorismo EX
12/12/2016 GESTÃO DE TI SEI/ EAD-20151-2-3-4 4 4 3086-60 Gerenciamento de Projetos de TI EX
12/12/2016 GESTÃO DE TI SEI/ EAD-20151-2-3-4 4 4 3084-60 Qualidade de Software EX
12/12/2016 ANÁLISE E DESENVOLVIMENTO DE SISTEMAS SEI-20151-2-3-4 3 4 3087-50 Empreendedorismo EX
12/12/2016 ANÁLISE E DESENVOLVIMENTO DE SISTEMAS SEI-20151-2-3-4 3 4 3088-50 Gestão da Qualidade EX
12/12/2016 ANÁLISE E DESENVOLVIMENTO DE SISTEMAS SEI-20151-2-3-4 3 4 6862-60 Programação Orientada a Objetos II EX
12/12/2016 ANÁLISE E DESENVOLVIMENTO DE SISTEMAS SEI-20151-2-3-4 3 4 6860-60 Projeto de Sistemas Orientado a Objetos EX
12/12/2016 ANÁLISE E DESENVOLVIMENTO DE SISTEMAS SEI-20151-2-3-4 4 4 6863-60 Desenvolvimento de Software para Internet EX
12/12/2016 ANÁLISE E DESENVOLVIMENTO DE SISTEMAS SEI-20151-2-3-4 4 4 6864-60 Gerenciamento de Projetos de Software EX
12/12/2016 ANÁLISE E DESENVOLVIMENTO DE SISTEMAS SEI-20151-2-3-4 4 4 6861-60 Tóp Especiais de Progr Orientada a Obj EX
12/12/2016 ANÁLISE E DESENVOLVIMENTO DE SISTEMAS SEI-20161-2-3-4 3 2 3074-50 Ética e Legislação Profissional EX
12/12/2016 ANÁLISE E DESENVOLVIMENTO DE SISTEMAS SEI-20161-2-3-4 3 2 0388-60 Fundamentos de Redes Dados e Comunicação EX
12/12/2016 ANÁLISE E DESENVOLVIMENTO DE SISTEMAS SEI-20161-2-3-4 3 2 6655-60 Matemática para Computação EX
12/12/2016 ANÁLISE E DESENVOLVIMENTO DE SISTEMAS SEI-20161-2-3-4 3 2 3075-50 Metodologia Científica EX
12/12/2016 ANÁLISE E DESENVOLVIMENTO DE SISTEMAS SEI-20161-2-3-4 4 2 6653-60 Engenharia de Software I EX
12/12/2016 ANÁLISE E DESENVOLVIMENTO DE SISTEMAS SEI-20161-2-3-4 4 2 6654-120 Linguagem e Técnicas de Programação EX
12/12/2016 GESTÃO EM AGRONEGÓCIO SEI-20141-2-3-4 3 6 6931-60 Empreendedorismo EX
12/12/2016 GESTÃO EM AGRONEGÓCIO SEI-20141-2-3-4 3 6 6934-60 Novas Tecnologias no Agronegócios EX
12/12/2016 GESTÃO EM AGRONEGÓCIO SEI-20141-2-3-4 3 6 4655-30 Tecnol da Inform Aplic à Area Financeira EX
12/12/2016 GESTÃO EM AGRONEGÓCIO SEI-20141-2-3-4 4 6 6933-60 Agricultura Internacional e o Meio Ambiente EX
12/12/2016 GESTÃO EM AGRONEGÓCIO SEI-20141-2-3-4 4 6 6935-30 Mecanização Agrícola EX
12/12/2016 GESTÃO EM AGRONEGÓCIO SEI-20141-2-3-4 4 6 6932-60 Mercado Futuro - II EX
12/12/2016 GESTÃO EM AGRONEGÓCIO SEI-20151-2-3-4 3 4 3011-60 Análise de Investimentos EX
12/12/2016 GESTÃO EM AGRONEGÓCIO SEI-20151-2-3-4 3 4 3001-30 Desenvolvimento Sustentável EX
12/12/2016 GESTÃO EM AGRONEGÓCIO SEI-20151-2-3-4 3 4 6923-60 Redes no Agronegócio/ Cooperativa EX
12/12/2016 GESTÃO EM AGRONEGÓCIO SEI-20151-2-3-4 4 4 6924-30 Agricultura Sustentável EX
12/12/2016 GESTÃO EM AGRONEGÓCIO SEI-20151-2-3-4 4 4 6925-60 Cadeias Produtivas - II EX
12/12/2016 GESTÃO EM AGRONEGÓCIO SEI-20151-2-3-4 4 4 3027-60 Planejamento Estratégico EX
12/12/2016 GESTÃO EM AGRONEGÓCIO SEI-20161-2-3-4 3 2 4649-60 Contabilidade EX
12/12/2016 GESTÃO EM AGRONEGÓCIO SEI-20161-2-3-4 3 2 2999-30 Estatística Aplicada EX
12/12/2016 GESTÃO EM AGRONEGÓCIO SEI-20161-2-3-4 3 2 4409-60 Fundamentos e Importância da Logística EX
12/12/2016 GESTÃO EM AGRONEGÓCIO SEI-20161-2-3-4 4 2 2995-30 Dinâmica das Relações Interpessoais EX
12/12/2016 GESTÃO EM AGRONEGÓCIO SEI-20161-2-3-4 4 2 6645-60 Introdução ao Agronegócio EX
12/12/2016 GESTÃO EM AGRONEGÓCIO SEI-20161-2-3-4 4 2 4653-60 Mercado de Capitais EX
12/12/2016 GESTÃO EM GASTRONOMIA SEI-20161-2-3-4 3 2 3001-30 Desenvolvimento Sustentável EX
12/12/2016 GESTÃO EM GASTRONOMIA SEI-20161-2-3-4 3 2 2995-30 Dinâmica das Relações Interpessoais EX
12/12/2016 GESTÃO EM GASTRONOMIA SEI-20161-2-3-4 3 2 6965-30 Estrutura e Funcionamento da Cozinha EX
12/12/2016 GESTÃO EM GASTRONOMIA SEI-20161-2-3-4 3 2 6964-60 Planejamento e Elaboração de Cardápios EX
12/12/2016 GESTÃO EM GASTRONOMIA SEI-20161-2-3-4 4 2 6967-30 Controle de Qualid e Conserv dos Alimentos EX
12/12/2016 GESTÃO EM GASTRONOMIA SEI-20161-2-3-4 4 2 6968-60 Cozinha Fria EX
12/12/2016 GESTÃO EM GASTRONOMIA SEI-20161-2-3-4 4 2 6966-60 Técnicas de Cozinha Profissional EX
12/12/2016 GESTÃO EM LOGÍSTICA EAD-20161/ SEI-20161-2-3-4 3 2 4649-60 Contabilidade EX
12/12/2016 GESTÃO EM LOGÍSTICA EAD-20161/ SEI-20161-2-3-4 3 2 2999-30 Estatística Aplicada EX
12/12/2016 GESTÃO EM LOGÍSTICA EAD-20161/ SEI-20161-2-3-4 3 2 4409-60 Fundamentos e Importância da Logística EX
12/12/2016 GESTÃO EM LOGÍSTICA EAD-20161/ SEI-20161-2-3-4 4 2 2995-30 Dinâmica das Relações Interpessoais EX
12/12/2016 GESTÃO EM LOGÍSTICA EAD-20161/ SEI-20161-2-3-4 4 2 4410-60 Planejamento e Controle de Estoques EX
12/12/2016 GESTÃO EM LOGÍSTICA EAD-20161/ SEI-20161-2-3-4 4 2 4412-60 Planejamento e Operação por Categoria de Produto EX
12/12/2016 GESTÃO EM LOGÍSTICA SEI/ EAD-20151-2-3-4 3 4 3001-30 Desenvolvimento Sustentável EX
12/12/2016 GESTÃO EM LOGÍSTICA SEI/ EAD-20151-2-3-4 3 4 4416-60 Gerenciamento de Transporte EX
12/12/2016 GESTÃO EM LOGÍSTICA SEI/ EAD-20151-2-3-4 3 4 4417-60 Logística Integrada: Produção e Comércio EX
12/12/2016 GESTÃO EM LOGÍSTICA SEI/ EAD-20151-2-3-4 4 4 4418-30 Logística no Comércio Eletrônico EX
12/12/2016 GESTÃO EM LOGÍSTICA SEI/ EAD-20151-2-3-4 4 4 4415-60 Logística para Importaçao e Exportação EX
12/12/2016 GESTÃO EM LOGÍSTICA SEI/ EAD-20151-2-3-4 4 4 3027-60 Planejamento Estratégico EX
12/12/2016 GESTÃO EM MARKETING EAD-20161/ SEI-20161-2-3-4 3 2 4649-60 Contabilidade EX
12/12/2016 GESTÃO EM MARKETING EAD-20161/ SEI-20161-2-3-4 3 2 2999-30 Estatística Aplicada EX
12/12/2016 GESTÃO EM MARKETING EAD-20161/ SEI-20161-2-3-4 3 2 3022-60 Mix de Marketing EX
12/12/2016 GESTÃO EM MARKETING EAD-20161/ SEI-20161-2-3-4 4 2 3026-60 Composto de Comunicaçao EX
12/12/2016 GESTÃO EM MARKETING EAD-20161/ SEI-20161-2-3-4 4 2 2995-30 Dinâmica das Relações Interpessoais EX
12/12/2016 GESTÃO EM MARKETING EAD-20161/ SEI-20161-2-3-4 4 2 3023-60 Pesquisa de Mercado EX
12/12/2016 GESTÃO EM MARKETING SEI/ EAD-20151-2-3-4 3 4 3001-30 Desenvolvimento Sustentável EX
12/12/2016 GESTÃO EM MARKETING SEI/ EAD-20151-2-3-4 3 4 4657-60 Distribuiçao e Trade Marketing EX
12/12/2016 GESTÃO EM MARKETING SEI/ EAD-20151-2-3-4 3 4 3025-60 Marketing Internacional EX
12/12/2016 GESTÃO EM MARKETING SEI/ EAD-20151-2-3-4 4 4 4658-60 Estratégia Competitiva EX
12/12/2016 GESTÃO EM MARKETING SEI/ EAD-20151-2-3-4 4 4 4659-30 Gerenciamento de Web Marketing EX
12/12/2016 GESTÃO EM MARKETING SEI/ EAD-20151-2-3-4 4 4 3027-60 Planejamento Estratégico EX
12/12/2016 GESTÃO EM PROC. GER. EAD-20161/ SEI-20161-2-3-4 3 2 4649-60 Contabilidade EX
12/12/2016 GESTÃO EM PROC. GER. EAD-20161/ SEI-20161-2-3-4 3 2 2999-30 Estatística Aplicada EX
12/12/2016 GESTÃO EM PROC. GER. EAD-20161/ SEI-20161-2-3-4 3 2 4665-60 Fundamentos da Gestao Financeira EX
12/12/2016 GESTÃO EM PROC. GER. EAD-20161/ SEI-20161-2-3-4 4 2 4664-60 Desenvolvimento de Recursos Humanos EX
12/12/2016 GESTÃO EM PROC. GER. EAD-20161/ SEI-20161-2-3-4 4 2 2995-30 Dinâmica das Relações Interpessoais EX
12/12/2016 GESTÃO EM PROC. GER. EAD-20161/ SEI-20161-2-3-4 4 2 3031-60 Marketing EX
12/12/2016 GESTÃO EM PROC. GER. SEI/ EAD-20151-2-3-4 3 4 3001-30 Desenvolvimento Sustentável EX
12/12/2016 GESTÃO EM PROC. GER. SEI/ EAD-20151-2-3-4 3 4 5599-60 Gerenciamento de Sistemas de Informação EX
12/12/2016 GESTÃO EM PROC. GER. SEI/ EAD-20151-2-3-4 3 4 3039-60 Logística Integrada EX
12/12/2016 GESTÃO EM PROC. GER. SEI/ EAD-20151-2-3-4 4 4 5600-60 Administração de Produção e Operações EX
12/12/2016 GESTÃO EM PROC. GER. SEI/ EAD-20151-2-3-4 4 4 5601-30 Criatividade e Inovação EX
12/12/2016 GESTÃO EM PROC. GER. SEI/ EAD-20151-2-3-4 4 4 3027-60 Planejamento Estratégico EX
12/12/2016 GESTÃO EM SEG. NO TRABALHO SEI-20141-2-3-4 3 6 6917-60 Meio Ambiente e Gestão de Resíduos EX
12/12/2016 GESTÃO EM SEG. NO TRABALHO SEI-20141-2-3-4 3 6 6916-60 Psicologia do trabalho EX
12/12/2016 GESTÃO EM SEG. NO TRABALHO SEI-20141-2-3-4 3 6 6913-30 Saúde Ocupacional EX
12/12/2016 GESTÃO EM SEG. NO TRABALHO SEI-20141-2-3-4 4 6 6915-60 Comunicação e Treinamento EX
12/12/2016 GESTÃO EM SEG. NO TRABALHO SEI-20141-2-3-4 4 6 6918-60 Normas Técnicas e Internacionais de SST EX
12/12/2016 GESTÃO EM SEG. NO TRABALHO SEI-20141-2-3-4 4 6 6914-30 Organização do Trabalho EX
12/12/2016 GESTÃO EM SEG. NO TRABALHO SEI-20151-2-3-4 3 4 6903-60 Biossegurança EX
12/12/2016 GESTÃO EM SEG. NO TRABALHO SEI-20151-2-3-4 3 4 6902-60 Desenho Téc e Proj em Seg do Trabalho EX
12/12/2016 GESTÃO EM SEG. NO TRABALHO SEI-20151-2-3-4 3 4 6906-60 Qualidade no Ambiente de Trabalho EX
12/12/2016 GESTÃO EM SEG. NO TRABALHO SEI-20151-2-3-4 4 4 6905-60 Espaços Confinados EX
12/12/2016 GESTÃO EM SEG. NO TRABALHO SEI-20151-2-3-4 4 4 6904-60 Legislação Previdenciária EX
12/12/2016 GESTÃO EM SEG. NO TRABALHO SEI-20161-2-3-4 3 2 6659-60 Atendimento Pré Hospitalar EX
12/12/2016 GESTÃO EM SEG. NO TRABALHO SEI-20161-2-3-4 3 2 2999-30 Estatística Aplicada EX
12/12/2016 GESTÃO EM SEG. NO TRABALHO SEI-20161-2-3-4 3 2 6662-60 Introdução de Higiene e Seg do Trabalho EX
12/12/2016 GESTÃO EM SEG. NO TRABALHO SEI-20161-2-3-4 4 2 6660-30 Biologia Aplicada EX
12/12/2016 GESTÃO EM SEG. NO TRABALHO SEI-20161-2-3-4 4 2 6661-60 Ergonomia EX
12/12/2016 GESTÃO EM SEG. NO TRABALHO SEI-20161-2-3-4 4 2 6663-60 Planejamento e Programas de Manutenção Industrial EX
12/12/2016 GESTÃO FINANCEIRA SEI-20151-2-3-4 3 4 4654-60 Controladoria EX
12/12/2016 GESTÃO FINANCEIRA SEI-20151-2-3-4 3 4 3001-30 Desenvolvimento Sustentável EX
12/12/2016 GESTÃO FINANCEIRA SEI-20151-2-3-4 3 4 4653-60 Mercado de Capitais EX
12/12/2016 GESTÃO FINANCEIRA SEI-20151-2-3-4 4 4 3011-60 Análise de Investimentos EX
12/12/2016 GESTÃO FINANCEIRA SEI-20151-2-3-4 4 4 3027-60 Planejamento Estratégico EX
12/12/2016 GESTÃO FINANCEIRA SEI-20151-2-3-4 4 4 4655-30 Tecnol da Inform Aplic à Area Financeira EX
12/12/2016 GESTÃO FINANCEIRA SEI-20161-2-3-4 3 2 4649-60 Contabilidade EX
12/12/2016 GESTÃO FINANCEIRA SEI-20161-2-3-4 3 2 2999-30 Estatística Aplicada EX
12/12/2016 GESTÃO FINANCEIRA SEI-20161-2-3-4 3 2 3003-60 Fundamentos da Gestao Financeira EX
12/12/2016 GESTÃO FINANCEIRA SEI-20161-2-3-4 4 2 4652-60 Análise das Demonstrações Financeiras EX
12/12/2016 GESTÃO FINANCEIRA SEI-20161-2-3-4 4 2 2995-30 Dinâmica das Relações Interpessoais EX
12/12/2016 GESTÃO FINANCEIRA SEI-20161-2-3-4 4 2 3004-60 Orçamento Empresarial EX
12/12/2016 GESTÃO HOSPITALAR SEI-20141-2-3-4 3 6 6883-40 Métodos de Pesquisa EX
12/12/2016 GESTÃO HOSPITALAR SEI-20141-2-3-4 3 6 6885-60 Serv em Enferm, Farmácia e Nutrição Hosp EX
12/12/2016 GESTÃO HOSPITALAR SEI-20141-2-3-4 3 6 6887-60 Serviços de Terceiros e Processos Hospitalares EX
12/12/2016 GESTÃO HOSPITALAR SEI-20141-2-3-4 4 6 6884-30 Gestão Hospitalar Integrada EX
12/12/2016 GESTÃO HOSPITALAR SEI-20141-2-3-4 4 6 6886-60 Serviços Laboratoriais e Exames Clínicos EX
12/12/2016 GESTÃO HOSPITALAR SEI-20141-2-3-4 4 6 6888-60 Sistemas de Informação na Área de Saúde EX
12/12/2016 GESTÃO HOSPITALAR SEI-20151-2-3-4 3 4 6876-40 Bioestatística ( Permitido o uso de Calculadora e Fórmulas no AVA ) EX
12/12/2016 GESTÃO HOSPITALAR SEI-20151-2-3-4 3 4 6872-40 Ciências Sociais EX
12/12/2016 GESTÃO HOSPITALAR SEI-20151-2-3-4 3 4 6875-40 Epidemiologia EX
12/12/2016 GESTÃO HOSPITALAR SEI-20151-2-3-4 3 4 6873-60 Gestão de Marketing EX
12/12/2016 GESTÃO HOSPITALAR SEI-20151-2-3-4 4 4 6871-60 Higiêne, Seg e Qualid de Vida no Trabalho EX
12/12/2016 GESTÃO HOSPITALAR SEI-20151-2-3-4 4 4 6874-60 Planejamento Estratégico em Saúde EX
12/12/2016 GESTÃO HOSPITALAR SEI-20151-2-3-4 4 4 6870-40 Saúde Pública EX
12/12/2016 GESTÃO HOSPITALAR SEI-20161-2-3-4 3 2 6657-60 Contabilidade Geral e de Custo EX
12/12/2016 GESTÃO HOSPITALAR SEI-20161-2-3-4 3 2 0389-60 Gerenciamento de Pessoas EX
12/12/2016 GESTÃO HOSPITALAR SEI-20161-2-3-4 3 2 0108-30 Técnicas de Informática EX
12/12/2016 GESTÃO HOSPITALAR SEI-20161-2-3-4 4 2 6656-40 Comunicação e Expressão EX
12/12/2016 GESTÃO HOSPITALAR SEI-20161-2-3-4 4 2 2995-30 Dinâmica das Relações Interpessoais EX
12/12/2016 GESTÃO HOSPITALAR SEI-20161-2-3-4 4 2 6658-60 Estrutura e Arquitetura Hospitalar EX
12/12/2016 GESTÃO PÚBLICA SEI-20151-2-3-4 3 4 6892-60 Captação e Gerenciamento de Recursos EX
12/12/2016 GESTÃO PÚBLICA SEI-20151-2-3-4 3 4 6893-60 Controle e Auditoria Pública EX
12/12/2016 GESTÃO PÚBLICA SEI-20151-2-3-4 3 4 3001-30 Desenvolvimento Sustentável EX
12/12/2016 GESTÃO PÚBLICA SEI-20151-2-3-4 4 4 6895-30 Licitações e Contratos Públicos EX
12/12/2016 GESTÃO PÚBLICA SEI-20151-2-3-4 4 4 3027-60 Planejamento Estratégico EX
12/12/2016 GESTÃO PÚBLICA SEI-20151-2-3-4 4 4 6894-60 Planejamento Urbano e Ambiental EX
12/12/2016 GESTÃO PÚBLICA SEI-20161-2-3-4 3 2 4649-60 Contabilidade EX
12/12/2016 GESTÃO PÚBLICA SEI-20161-2-3-4 3 2 2999-30 Estatística Aplicada EX
12/12/2016 GESTÃO PÚBLICA SEI-20161-2-3-4 3 2 6648-60 Recursos Humanos na Administração Pública EX
12/12/2016 GESTÃO PÚBLICA SEI-20161-2-3-4 4 2 2995-30 Dinâmica das Relações Interpessoais EX
12/12/2016 GESTÃO PÚBLICA SEI-20161-2-3-4 4 2 6646-60 Gestão Pública e Políticas Públicas no Brasil EX
12/12/2016 GESTÃO PÚBLICA SEI-20161-2-3-4 4 2 6647-60 Introdução à Teoria do Estado EX
12/12/2016 HISTÓRIA SEI-20141-2-3-4 3 6 6815-60 Ditadura Militar e Nova República EX
12/12/2016 HISTÓRIA SEI-20141-2-3-4 3 6 6108-40 Educação Ambiental EX
12/12/2016 HISTÓRIA SEI-20141-2-3-4 3 6 6818-40 História e Imagem EX
12/12/2016 HISTÓRIA SEI-20141-2-3-4 3 6 5393-40 Métodos de Pesquisa EX
12/12/2016 HISTÓRIA SEI-20141-2-3-4 4 6 6969-40 Direitos Humanos EX
12/12/2016 HISTÓRIA SEI-20141-2-3-4 4 6 6817-40 História da Globalização EX
12/12/2016 HISTÓRIA SEI-20141-2-3-4 4 6 6816-60 Historiografia do Brasil EX
12/12/2016 HISTÓRIA SEI-20141-2-3-4 4 6 6943-40 Tóp de Atuação Prof - História EX
12/12/2016 HISTÓRIA SEI-20151-2-3-4 3 4 6108-40 Educação Ambiental EX
12/12/2016 HISTÓRIA SEI-20151-2-3-4 3 4 5461-20 Língua Brasileira de Sinais - Libras EX
12/12/2016 HISTÓRIA SEI-20151-2-3-4 3 4 5466-20 Planejamento e Políticas Públicas de Educação EX
12/12/2016 HISTÓRIA SEI-20151-2-3-4 3 4 6809-80 República Velha EX
12/12/2016 HISTÓRIA SEI-20151-2-3-4 4 4 6944-20 Didática Específica - História EX
12/12/2016 HISTÓRIA SEI-20151-2-3-4 4 4 6810-80 História da América Contemporânea EX
12/12/2016 HISTÓRIA SEI-20151-2-3-4 4 4 6808-40 História Interdisciplinar EX
12/12/2016 HISTÓRIA SEI-20161-2-3-4 3 2 5368-40 Ciências Sociais EX
12/12/2016 HISTÓRIA SEI-20161-2-3-4 3 2 5369-40 Comunicação e Expressão EX
12/12/2016 HISTÓRIA SEI-20161-2-3-4 3 2 6640-40 Introdução à Problemática Ambiental EX
12/12/2016 HISTÓRIA SEI-20161-2-3-4 3 2 5448-40 Psicologia do Desenvolvimento e da Aprendizagem EX
12/12/2016 HISTÓRIA SEI-20161-2-3-4 4 2 6639-60 História Antiga e Medieval EX
12/12/2016 HISTÓRIA SEI-20161-2-3-4 4 2 6638-60 História do Brasil Colônia EX
12/12/2016 LETRAS ESPANHOL SEI-20131-2-3-4 4 8 6273-60 Língua Espanhola: Aspectos discursivos EX
12/12/2016 LETRAS ESPANHOL SEI-20131-2-3-4 4 8 6275-40 Literaturas da Língua Espanhola: Poesia EX
12/12/2016 LETRAS ESPANHOL SEI-20131-2-3-4 3 8 6274-40 Literaturas da Língua Espanhola: Prosa EX
12/12/2016 LETRAS ESPANHOL SEI-20131-2-3-4 3 8 5479-60 Morfossintaxe e Semântica da Língua Espanhola EX
12/12/2016 LETRAS ESPANHOL SEI-20131-2-3-4 3 8 6271-20 Prática de Ensino de Literaturas em Língua Espanhola EX
12/12/2016 LETRAS ESPANHOL SEI-20141-2-3-4 3 6 5462-40 Língua e Cultura Latinas EX
12/12/2016 LETRAS ESPANHOL SEI-20141-2-3-4 3 6 5393-40 Métodos de Pesquisa EX
12/12/2016 LETRAS ESPANHOL SEI-20141-2-3-4 4 6 5464-80 Literatura Brasileira: Prosa EX
12/12/2016 LETRAS ESPANHOL SEI-20141-2-3-4 4 6 5493-40 Tóp de Atuação Prof EX
12/12/2016 LETRAS ESPANHOL SEI-20151-2-3-4 3 4 6946-20 Didática Específica - Letras EX
12/12/2016 LETRAS ESPANHOL SEI-20151-2-3-4 3 4 5460-40 Letras Interdisciplinar EX
12/12/2016 LETRAS ESPANHOL SEI-20151-2-3-4 3 4 5456-80 Literatura Portuguesa: Prosa EX
12/12/2016 LETRAS ESPANHOL SEI-20151-2-3-4 4 4 5461-20 Língua Brasileira de Sinais - Libras EX
12/12/2016 LETRAS ESPANHOL SEI-20151-2-3-4 4 4 6265-60 Morfossintaxe Aplicada da Língua Portuguesa EX
12/12/2016 LETRAS ESPANHOL SEI-20151-2-3-4 4 4 5466-20 Planejamento e Políticas Públicas de Educação EX
12/12/2016 LETRAS ESPANHOL SEI-20151-2-3-4 4 4 6266-40 Relações Ciência, Tecnologia e Sociedade EX
12/12/2016 LETRAS ESPANHOL SEI-20161-2-3-4 3 2 5368-40 Ciências Sociais EX
12/12/2016 LETRAS ESPANHOL SEI-20161-2-3-4 3 2 5369-40 Comunicação e Expressão EX
12/12/2016 LETRAS ESPANHOL SEI-20161-2-3-4 3 2 5442-60 Linguística Geral EX
12/12/2016 LETRAS ESPANHOL SEI-20161-2-3-4 3 2 5448-40 Psicologia do Desenvolvimento e da Aprendizagem EX
12/12/2016 LETRAS ESPANHOL SEI-20161-2-3-4 4 2 6263-60 Semântica e Pragmática EX
12/12/2016 LETRAS ESPANHOL SEI-20161-2-3-4 4 2 6262-60 Teoria Literária EX
12/12/2016 LETRAS INGLÊS EAD-20161/ SEI-20161-2-3-4 3 2 5368-40 Ciências Sociais EX
12/12/2016 LETRAS INGLÊS EAD-20161/ SEI-20161-2-3-4 3 2 5369-40 Comunicação e Expressão EX
12/12/2016 LETRAS INGLÊS EAD-20161/ SEI-20161-2-3-4 3 2 5442-60 Linguística Geral EX
12/12/2016 LETRAS INGLÊS EAD-20161/ SEI-20161-2-3-4 3 2 5448-40 Psicologia do Desenvolvimento e da Aprendizagem EX
12/12/2016 LETRAS INGLÊS EAD-20161/ SEI-20161-2-3-4 4 2 6263-60 Semântica e Pragmática EX
12/12/2016 LETRAS INGLÊS EAD-20161/ SEI-20161-2-3-4 4 2 6262-60 Teoria Literária EX
12/12/2016 LETRAS INGLÊS SEI/ EAD-20131-2-3-4 3 8 6959-40 Literaturas da Língua Inglesa: Prosa EX
12/12/2016 LETRAS INGLÊS SEI/ EAD-20131-2-3-4 3 8 5492-60 Morfossintaxe e Semântica da Língua Inglesa EX
12/12/2016 LETRAS INGLÊS SEI/ EAD-20131-2-3-4 3 8 6957-20 Prática de Ensino de Literaturas em Língua Inglesa EX
12/12/2016 LETRAS INGLÊS SEI/ EAD-20131-2-3-4 4 8 6267-60 Língua Inglesa: Aspectos Discursivos EX
12/12/2016 LETRAS INGLÊS SEI/ EAD-20131-2-3-4 4 8 6960-40 Literaturas da Língua Inglesa: Poesia EX
12/12/2016 LETRAS INGLÊS SEI/ EAD-20141-2-3-4 3 6 5462-40 Língua e Cultura Latinas EX
12/12/2016 LETRAS INGLÊS SEI/ EAD-20141-2-3-4 3 6 5393-40 Métodos de Pesquisa EX
12/12/2016 LETRAS INGLÊS SEI/ EAD-20141-2-3-4 4 6 5464-80 Literatura Brasileira: Prosa EX
12/12/2016 LETRAS INGLÊS SEI/ EAD-20141-2-3-4 4 6 5493-40 Tóp de Atuação Prof EX
12/12/2016 LETRAS INGLÊS SEI/ EAD-20151-2-3-4 3 4 6946-20 Didática Específica - Letras EX
12/12/2016 LETRAS INGLÊS SEI/ EAD-20151-2-3-4 3 4 5460-40 Letras Interdisciplinar EX
12/12/2016 LETRAS INGLÊS SEI/ EAD-20151-2-3-4 3 4 5456-80 Literatura Portuguesa: Prosa EX
12/12/2016 LETRAS INGLÊS SEI/ EAD-20151-2-3-4 4 4 5461-20 Língua Brasileira de Sinais - Libras EX
12/12/2016 LETRAS INGLÊS SEI/ EAD-20151-2-3-4 4 4 6265-60 Morfossintaxe Aplicada da Língua Portuguesa EX
12/12/2016 LETRAS INGLÊS SEI/ EAD-20151-2-3-4 4 4 5466-20 Planejamento e Políticas Públicas de Educação EX
12/12/2016 LETRAS INGLÊS SEI/ EAD-20151-2-3-4 4 4 6266-40 Relações Ciência, Tecnologia e Sociedade EX
12/12/2016 LETRAS PORTUGUÊS EAD-20161/ SEI-20161-2-3-4 3 2 5368-40 Ciências Sociais EX
12/12/2016 LETRAS PORTUGUÊS EAD-20161/ SEI-20161-2-3-4 3 2 5369-40 Comunicação e Expressão EX
12/12/2016 LETRAS PORTUGUÊS EAD-20161/ SEI-20161-2-3-4 3 2 5442-60 Linguística Geral EX
12/12/2016 LETRAS PORTUGUÊS EAD-20161/ SEI-20161-2-3-4 3 2 5448-40 Psicologia do Desenvolvimento e da Aprendizagem EX
12/12/2016 LETRAS PORTUGUÊS EAD-20161/ SEI-20161-2-3-4 4 2 6263-60 Semântica e Pragmática EX
12/12/2016 LETRAS PORTUGUÊS EAD-20161/ SEI-20161-2-3-4 4 2 6262-60 Teoria Literária EX
12/12/2016 LETRAS PORTUGUÊS SEI/ EAD-20141-2-3-4 4 6 5464-80 Literatura Brasileira: Prosa EX
12/12/2016 LETRAS PORTUGUÊS SEI/ EAD-20141-2-3-4 4 6 5493-40 Tóp de Atuação Prof EX
12/12/2016 LETRAS PORTUGUÊS SEI/ EAD-20141-2-3-4 3 6 5462-40 Língua e Cultura Latinas EX
12/12/2016 LETRAS PORTUGUÊS SEI/ EAD-20141-2-3-4 3 6 5393-40 Métodos de Pesquisa EX
12/12/2016 LETRAS PORTUGUÊS SEI/ EAD-20151-2-3-4 3 4 6946-20 Didática Específica - Letras EX
12/12/2016 LETRAS PORTUGUÊS SEI/ EAD-20151-2-3-4 3 4 5460-40 Letras Interdisciplinar EX
12/12/2016 LETRAS PORTUGUÊS SEI/ EAD-20151-2-3-4 3 4 5456-80 Literatura Portuguesa: Prosa EX
12/12/2016 LETRAS PORTUGUÊS SEI/ EAD-20151-2-3-4 4 4 5461-20 Língua Brasileira de Sinais - Libras EX
12/12/2016 LETRAS PORTUGUÊS SEI/ EAD-20151-2-3-4 4 4 6265-60 Morfossintaxe Aplicada da Língua Portuguesa EX
12/12/2016 LETRAS PORTUGUÊS SEI/ EAD-20151-2-3-4 4 4 5466-20 Planejamento e Políticas Públicas de Educação EX
12/12/2016 LETRAS PORTUGUÊS SEI/ EAD-20151-2-3-4 4 4 6266-40 Relações Ciência, Tecnologia e Sociedade EX
12/12/2016 MATEMÁTICA SEI-20141-2-3-4 3 6 5393-40 Métodos de Pesquisa EX
12/12/2016 MATEMÁTICA SEI-20141-2-3-4 3 6 6947-40 Tóp de Atuação Prof - Matemática EX
12/12/2016 MATEMÁTICA SEI-20141-2-3-4 4 6 6156-40 Complementos de Análise Matemática EX
12/12/2016 MATEMÁTICA SEI-20141-2-3-4 4 6 5512-80 Complementos de Física EX
12/12/2016 MATEMÁTICA SEI-20141-2-3-4 4 6 6152-40 Probabilidade e Estatística EX
12/12/2016 MATEMÁTICA SEI-20151-2-3-4 3 4 6156-80 Complementos de Álgebra Linear EX
12/12/2016 MATEMÁTICA SEI-20151-2-3-4 3 4 5506-40 Matemática Interdisciplinar EX
12/12/2016 MATEMÁTICA SEI-20151-2-3-4 3 4 5466-20 Planejamento e Políticas Públicas de Educação EX
12/12/2016 MATEMÁTICA SEI-20151-2-3-4 4 4 6150-80 Cálculo Dif e Integral de Várias Variáveis EX
12/12/2016 MATEMÁTICA SEI-20151-2-3-4 4 4 6948-20 Didática Específica - Matemática EX
12/12/2016 MATEMÁTICA SEI-20151-2-3-4 4 4 5461-20 Língua Brasileira de Sinais - Libras EX
12/12/2016 MATEMÁTICA SEI-20151-2-3-4 4 4 6157-20 Noções de Cálculo Numérico EX
12/12/2016 MATEMÁTICA SEI-20161-2-3-4 3 2 6147-60 Cálculo Diferencial de Uma Variável EX
12/12/2016 MATEMÁTICA SEI-20161-2-3-4 3 2 5368-40 Ciências Sociais EX
12/12/2016 MATEMÁTICA SEI-20161-2-3-4 3 2 5369-40 Comunicação e Expressão EX
12/12/2016 MATEMÁTICA SEI-20161-2-3-4 4 2 5500-60 Geometria Plana EX
12/12/2016 MATEMÁTICA SEI-20161-2-3-4 4 2 5638-40 Lógica Matemática EX
12/12/2016 MATEMÁTICA SEI-20161-2-3-4 4 2 5448-40 Psicologia do Desenvolvimento e da Aprendizagem EX
12/12/2016 PEDAGOGIA SEI/ EAD-20141-2-3-4 3 6 6546-60 Escola, Currículo e Cultura EX
12/12/2016 PEDAGOGIA SEI/ EAD-20141-2-3-4 3 6 5393-40 Métodos de Pesquisa EX
12/12/2016 PEDAGOGIA SEI/ EAD-20141-2-3-4 3 6 6571-60 Orient e Prát de Gestão da Educ em Amb Escolares e Não-Escolares ( Não Há Exame) RF
12/12/2016 PEDAGOGIA SEI/ EAD-20141-2-3-4 4 6 6258-60 Avaliação Educacional EX
12/12/2016 PEDAGOGIA SEI/ EAD-20141-2-3-4 4 6 6524-40 Did e Metod do Ens Médio: Normal e Ed. Prof EX
12/12/2016 PEDAGOGIA SEI/ EAD-20141-2-3-4 4 6 6949-40 Tóp de Atuação Prof - Pedagogia EX
12/12/2016 PEDAGOGIA SEI/ EAD-20151-2-3-4 3 4 6115-40 Estatística ( Permitido Calculadora Simples ) EX
12/12/2016 PEDAGOGIA SEI/ EAD-20151-2-3-4 3 4 6117-60 Orient e Prát de Projetos de Ens Fundamental ( Não Há Exame) RF
12/12/2016 PEDAGOGIA SEI/ EAD-20151-2-3-4 3 4 5542-40 Pedagogia Interdisciplinar EX
12/12/2016 PEDAGOGIA SEI/ EAD-20151-2-3-4 3 4 5543-40 Psicologia Sócio-Interacionista EX
12/12/2016 PEDAGOGIA SEI/ EAD-20151-2-3-4 4 4 6569-60 Metod de Arte e Movimento: Corporeidade EX
12/12/2016 PEDAGOGIA SEI/ EAD-20151-2-3-4 4 4 5660-60 Metod e Prát do Ens da Matemática e Ciências EX
12/12/2016 PEDAGOGIA SEI/ EAD-20151-2-3-4 4 4 5662-60 Metod e Prát do Ens de Língua Portuguesa EX
12/12/2016 PEDAGOGIA SEI/ EAD-20161-2-3-4 3 2 5368-40 Ciências Sociais EX
12/12/2016 PEDAGOGIA SEI/ EAD-20161-2-3-4 3 2 5369-40 Comunicação e Expressão EX
12/12/2016 PEDAGOGIA SEI/ EAD-20161-2-3-4 3 2 6254-60 Didática Fundamental EX
12/12/2016 PEDAGOGIA SEI/ EAD-20161-2-3-4 3 2 5654-40 Língua Brasileira de Sinais - Libras EX
12/12/2016 PEDAGOGIA SEI/ EAD-20161-2-3-4 4 2 6567-40 Fundamentos de Filosofia e Educação EX
12/12/2016 PEDAGOGIA SEI/ EAD-20161-2-3-4 4 2 6255-60 Psic do Desenv e Teorias da Aprendizagem EX
12/12/2016 PEDAGOGIA SEI/ EAD-20161-2-3-4 4 2 6566-60 Tecnol da Inform e Comunic em Educação EX
12/12/2016 QUÍMICA SEI-20163-4 3 2 5366-30 Interpretação e Produção de Textos EX
12/12/2016 QUÍMICA SEI-20163-4 3 2 6531-90 Matemática ( Permitido o uso de Calculadora Simples ou Científica HP20C ) EX
12/12/2016 QUÍMICA SEI-20163-4 4 2 6108-30 Educação Ambiental EX
12/12/2016 QUÍMICA SEI-20163-4 4 2 5495-90 Informática EX
12/12/2016 QUÍMICA SEI-20163-4 4 2 6642-60 Química Geral EX
12/12/2016 SERVIÇO SOCIAL EAD-20161/ SEI-20161-2-3-4 3 2 5559-40 Administração e Planejamento Social EX
12/12/2016 SERVIÇO SOCIAL EAD-20161/ SEI-20161-2-3-4 3 2 5368-40 Ciências Sociais EX
12/12/2016 SERVIÇO SOCIAL EAD-20161/ SEI-20161-2-3-4 3 2 5369-40 Comunicação e Expressão EX
12/12/2016 SERVIÇO SOCIAL EAD-20161/ SEI-20161-2-3-4 3 2 5556-80 Fund Hist Teor e Metod do Serviço Social EX
12/12/2016 SERVIÇO SOCIAL EAD-20161/ SEI-20161-2-3-4 4 2 5565-60 Introduçao ao Pensamento Sociológico EX
12/12/2016 SERVIÇO SOCIAL EAD-20161/ SEI-20161-2-3-4 4 2 5561-40 Legislaçao Social e Previdenciária EX
12/12/2016 SERVIÇO SOCIAL EAD-20161/ SEI-20161-2-3-4 4 2 6123-40 Antropologia e Cultura Brasileira EX
12/12/2016 SERVIÇO SOCIAL SEI/ EAD-2013-3-4 3 8 5574-40 História do Pensamento Filosófico EX
12/12/2016 SERVIÇO SOCIAL SEI/ EAD-2013-3-4 3 8 5365-40 Homem e Sociedade EX
12/12/2016 SERVIÇO SOCIAL SEI/ EAD-2013-3-4 3 8 5366-40 Interpretação e Produção de Textos EX
12/12/2016 SERVIÇO SOCIAL SEI/ EAD-2013-3-4 3 8 6125-60 Psicologia do Desenvolvimento: Ciclo Vital EX
12/12/2016 SERVIÇO SOCIAL SEI/ EAD-2013-3-4 4 8 5555-60 Direito Constitucional EX
12/12/2016 SERVIÇO SOCIAL SEI/ EAD-2013-3-4 4 8 6505-60 Perspectivas Profissionais em Serviço Social EX
12/12/2016 SERVIÇO SOCIAL SEI/ EAD-2013-3-4 4 8 5558-40 Princípios Básicos de Administração EX
12/12/2016 SERVIÇO SOCIAL SEI/ EAD-20141-2-3-4 3 6 5393-40 Métodos de Pesquisa EX
12/12/2016 SERVIÇO SOCIAL SEI/ EAD-20141-2-3-4 3 6 6516-60 Monitoramento e Avaliação em Serviço Social EX
12/12/2016 SERVIÇO SOCIAL SEI/ EAD-20141-2-3-4 3 6 6517-60 Trabalho de Pesdquisa em Serviço Social EX
12/12/2016 SERVIÇO SOCIAL SEI/ EAD-20141-2-3-4 4 6 6139-40 Serviço Social em Equipe Multidisciplinar EX
12/12/2016 SERVIÇO SOCIAL SEI/ EAD-20141-2-3-4 4 6 5587-40 Serviço Social Integrado EX
12/12/2016 SERVIÇO SOCIAL SEI/ EAD-20141-2-3-4 4 6 6518-60 Supervisão de Intervenção Profissional EX
12/12/2016 SERVIÇO SOCIAL SEI/ EAD-20151-2-3-4 3 4 5571-40 Ação Soc junto à Criança, Adolesc e 3ª Idade EX
12/12/2016 SERVIÇO SOCIAL SEI/ EAD-20151-2-3-4 3 4 6276-40 Elaboração de Projetos de Pesquisa EX
12/12/2016 SERVIÇO SOCIAL SEI/ EAD-20151-2-3-4 3 4 6134-40 Estatística ( Permitido Calculadora Simples ) EX
12/12/2016 SERVIÇO SOCIAL SEI/ EAD-20151-2-3-4 3 4 5592-40 Serviço Social e a Questao Social EX
12/12/2016 SERVIÇO SOCIAL SEI/ EAD-20151-2-3-4 4 4 6509-40 Ética Profissional EX
12/12/2016 SERVIÇO SOCIAL SEI/ EAD-20151-2-3-4 4 4 6508-40 Movimentos Sociais Contemporâneos EX
12/12/2016 SERVIÇO SOCIAL SEI/ EAD-20151-2-3-4 4 4 6131-60 Observação Orientada (Supervisão) EX
12/12/2016 SOCIOLOGIA SEI-20141-2-3-4 3 6 6750-60 Transformações Históricas Contemporâneas EX
12/12/2016 SOCIOLOGIA SEI-20141-2-3-4 3 6 6752-40 Antropologia: Desafios Contemporâneos EX
12/12/2016 SOCIOLOGIA SEI-20141-2-3-4 3 6 6108-40 Educação Ambiental EX
12/12/2016 SOCIOLOGIA SEI-20141-2-3-4 3 6 5393-40 Métodos de Pesquisa EX
12/12/2016 SOCIOLOGIA SEI-20141-2-3-4 4 6 6753-40 Temas Emergentes de Sociologia EX
12/12/2016 SOCIOLOGIA SEI-20141-2-3-4 4 6 6751-40 Teoria Política Contemporânea EX
12/12/2016 SOCIOLOGIA SEI-20141-2-3-4 4 6 6956-40 Tóp de Atuação Prof - Sociologia EX
24/11/2016 SOCIOLOGIA SEI-20141-2-3-4 4 6 6969-40 Direitos Humanos EX
12/12/2016 SOCIOLOGIA SEI-20151-2-3-4 3 4 6955-20 Didática Específica - Sociologia EX
12/12/2016 SOCIOLOGIA SEI-20151-2-3-4 3 4 6108-40 Educação Ambiental EX
12/12/2016 SOCIOLOGIA SEI-20151-2-3-4 3 4 6741-40 Pensamento Social Brasileiro EX
12/12/2016 SOCIOLOGIA SEI-20151-2-3-4 3 4 6742-80 Sociologia Rural e Urbana EX
12/12/2016 SOCIOLOGIA SEI-20151-2-3-4 4 4 6740-60 Fund de Economia para as Ciências Sociais EX
12/12/2016 SOCIOLOGIA SEI-20151-2-3-4 4 4 5461-20 Língua Brasileira de Sinais - Libras EX
12/12/2016 SOCIOLOGIA SEI-20151-2-3-4 4 4 5466-20 Planejamento e Políticas Públicas de Educação EX
12/12/2016 SOCIOLOGIA SEI-20151-2-3-4 4 4 6739-40 Sociologia Interdisciplinar EX
12/12/2016 SOCIOLOGIA SEI-20161-2-3-4 3 2 5368-40 Ciências Sociais EX
12/12/2016 SOCIOLOGIA SEI-20161-2-3-4 3 2 5369-40 Comunicação e Expressão EX
12/12/2016 SOCIOLOGIA SEI-20161-2-3-4 3 2 6637-60 Metodologia de Ensino das Ciências Sociais EX
12/12/2016 SOCIOLOGIA SEI-20161-2-3-4 4 2 6635-40 História da Antropologia EX
12/12/2016 SOCIOLOGIA SEI-20161-2-3-4 4 2 6636-60 Pensamento Político Moderno EX
12/12/2016 SOCIOLOGIA SEI-20161-2-3-4 4 2 5448-40 Psicologia do Desenvolvimento e da Aprendizagem EX
19/12 A 21/12/2016 PÓS -GRADUAÇÃO ( DEPENDÊNCIA ) Todos - - - Todas PIC
9/01 A 11/01/2017 PÓS -GRADUAÇÃO ( DEPENDÊNCIA ) Todos - - - Todas SUB